GFSSGP_sfc_rhum_195.txt.gz
RH
53 43 60 55 55 55 46 35 29 33 36 30 35 34 43 48 56 76 75 54 75 81 81 81 86 83 78 76 76 75 76 78 76 76 76 75 75 72 72 71 70 74 76 76 75 72 70 69 69
50 37 52 62 48 53 41 31 33 29 26 21 25 31 37 48 60 73 73 56 71 76 80 82 86 85 81 78 77 75 76 80 76 78 79 79 77 75 72 71 72 75 77 77 75 73 72 72 73
51 38 50 60 55 40 38 35 31 23 20 22 25 27 42 49 56 73 68 54 67 76 77 81 86 85 83 82 79 79 77 81 77 77 79 78 78 75 73 71 73 75 77 77 76 74 74 73 73
40 48 45 35 38 28 28 32 23 21 19 21 25 41 49 50 52 63 55 47 63 74 74 88 88 86 85 81 80 79 80 80 78 79 79 79 78 78 74 72 73 77 78 79 76 75 73 73 72
45 51 45 45 34 25 25 22 20 22 21 23 21 59 60 53 51 54 52 43 55 72 80 84 88 86 84 81 80 79 82 81 81 80 79 77 77 78 77 75 75 77 77 77 76 74 73 72 70
44 42 41 44 31 22 25 22 20 24 23 22 24 40 62 57 49 49 46 46 50 81 80 81 88 88 86 81 81 81 82 82 82 79 79 80 77 77 79 78 76 77 76 78 77 74 73 72 70
48 50 46 40 28 28 26 23 24 27 25 21 20 36 51 50 52 45 44 43 50 73 81 83 87 87 88 85 84 84 84 84 82 78 77 80 82 81 82 81 78 76 78 77 77 77 75 73 72
49 45 40 36 33 37 28 23 23 25 30 20 19 26 52 41 41 46 48 46 50 70 80 88 90 89 93 95 88 86 86 86 84 84 85 86 86 85 85 84 81 78 77 78 77 76 76 75 74
38 47 46 38 32 35 23 25 24 23 26 22 20 22 32 36 38 46 55 57 56 60 76 80 83 84 87 95 90 88 88 88 87 88 87 88 96 94 89 89 86 80 78 78 78 77 81 78 78
45 56 45 31 29 32 26 28 26 25 24 24 21 20 22 21 26 42 55 60 66 63 65 72 74 78 78 71 87 96 91 96 96 95 95 97 97 95 84 90 89 84 81 80 77 76 81 86 91
40 42 35 29 32 32 31 30 26 29 31 26 26 22 25 22 20 19 22 50 60 60 65 61 65 69 71 67 82 91 90 95 95 94 92 92 80 85 89 92 90 97 89 92 86 85 90 95 96
40 30 31 30 31 34 37 31 31 29 29 24 24 22 24 24 22 24 24 22 25 56 66 64 64 62 64 68 83 83 87 90 90 86 82 83 85 88 96 97 98 98 98 97 97 96 90 85 73
36 33 28 27 28 30 30 33 32 28 24 22 20 23 25 22 25 24 24 28 31 30 45 74 73 65 66 67 80 81 80 82 79 86 79 87 84 90 95 95 98 98 99 98 98 97 94 86 80
33 32 31 29 27 27 29 32 31 27 24 24 20 22 23 25 24 30 38 41 45 42 37 44 76 79 74 65 76 79 80 88 83 82 86 78 84 87 94 92 95 98 97 97 97 98 97 90 84
32 36 36 32 28 30 28 32 30 24 25 22 22 23 22 26 38 44 45 47 53 53 51 51 47 79 84 81 92 96 94 91 92 94 85 76 82 82 87 90 94 97 96 96 97 98 97 96 89
39 45 49 32 28 32 26 40 27 24 25 26 24 25 22 31 43 46 48 50 57 59 61 61 55 52 67 87 94 92 93 96 96 90 91 84 85 82 85 90 95 96 97 98 98 98 99 97 98
49 48 42 36 26 32 30 38 28 24 23 24 26 26 25 41 47 50 52 58 58 65 67 69 65 65 64 54 93 91 84 90 92 96 95 91 86 81 86 90 96 96 98 98 97 98 97 98 98
51 46 44 43 32 29 35 35 31 26 25 28 29 29 38 47 52 52 53 53 58 70 72 71 69 70 70 73 58 90 93 87 91 95 95 85 87 82 77 90 94 96 98 99 98 95 98 94 85
39 43 46 37 30 32 31 32 30 30 30 31 33 37 47 49 54 52 52 54 59 63 70 69 72 74 75 80 87 84 92 94 98 94 88 81 78 75 85 86 91 95 94 93 94 95 93 88 90
38 41 44 40 32 31 32 31 29 29 28 31 31 48 49 48 47 46 48 50 59 59 62 64 61 62 78 82 86 92 84 88 94 90 82 76 81 93 85 92 93 94 98 97 95 91 94 95 91
41 43 42 37 35 36 37 36 36 30 40 42 42 44 44 43 41 37 37 42 55 57 62 55 65 64 74 80 83 92 88 90 98 98 89 93 88 92 94 98 92 91 91 97 93 92 91 96 95
41 34 36 37 46 53 38 52 36 31 29 49 47 44 36 33 31 30 31 30 36 45 60 62 62 65 64 79 86 95 99 86 86 95 98 94 85 89 91 94 94 90 93 93 93 88 93 92 94
35 36 35 38 41 47 38 53 34 30 29 51 42 34 32 32 30 29 29 27 30 34 42 61 66 61 66 74 86 95 95 98 91 96 98 96 90 84 81 90 89 91 91 88 90 89 94 92 95
29 34 39 43 48 71 45 49 50 56 52 40 33 29 29 29 30 33 29 27 33 36 36 46 59 67 68 74 81 92 95 96 98 97 98 96 95 97 92 93 92 90 88 87 87 92 92 91 89
30 41 71 70 73 63 37 41 41 50 44 39 47 57 60 56 51 46 38 34 32 36 37 35 42 64 76 78 84 92 95 98 99 96 98 98 98 98 96 98 98 93 90 85 87 88 89 86 86
35 39 68 79 67 61 39 63 49 50 43 40 42 53 46 53 59 67 64 46 38 36 41 43 47 58 74 81 82 89 94 96 98 98 98 97 97 98 96 97 97 97 88 85 85 86 90 89 93
39 48 38 56 50 64 58 48 50 70 56 41 39 44 50 49 44 48 49 45 46 45 43 46 48 50 69 86 80 86 94 97 99 98 97 96 93 94 94 88 94 97 88 88 87 86 91 87 93
35 37 58 63 92 92 74 62 81 94 85 60 56 56 54 52 48 48 52 51 49 51 50 50 51 52 68 83 85 80 96 96 97 97 96 96 96 96 96 95 98 99 93 84 84 89 92 94 97
48 49 52 52 80 95 90 75 84 72 59 54 49 42 42 45 52 53 46 49 50 49 54 56 52 52 65 81 82 84 96 98 96 96 97 97 94 84 82 85 94 99 95 86 86 92 93 93 92
40 48 53 94 88 93 94 84 68 68 61 37 37 36 45 44 50 50 53 52 52 50 54 51 46 44 54 76 86 82 97 93 97 97 97 97 91 86 81 86 92 98 92 86 87 85 83 88 90

GFSSGP_sfc_rhum_198.txt.gz
RH
57 47 64 60 57 49 43 38 39 39 41 30 33 42 50 57 61 71 78 72 83 88 85 84 86 83 77 74 75 78 77 76 75 76 74 75 74 73 72 71 72 76 77 75 72 70 70 70 71
61 42 60 65 46 47 44 35 33 32 27 27 27 43 47 61 67 81 69 79 79 83 85 86 87 85 82 78 78 77 78 78 76 78 76 78 76 75 72 71 75 78 77 75 73 72 71 72 73
50 44 50 58 56 41 43 36 31 25 22 25 28 40 53 63 72 75 72 78 80 82 84 85 88 87 84 82 78 76 76 80 76 80 80 78 78 76 73 72 75 78 76 76 74 73 72 72 72
43 51 45 35 40 32 31 29 28 22 19 22 32 55 58 58 57 68 63 76 84 86 85 88 89 87 85 80 78 79 78 81 78 78 80 78 78 76 74 72 75 78 77 77 75 74 72 71 71
53 53 47 51 39 30 32 26 25 25 26 22 36 70 70 59 61 64 57 74 85 88 88 86 88 86 84 82 79 81 79 83 79 79 81 79 78 78 76 73 75 77 77 77 75 73 70 69 69
46 43 42 44 38 28 30 26 27 29 28 26 33 65 72 61 61 63 55 70 73 79 83 85 88 88 88 83 81 81 79 82 82 82 82 80 79 79 79 77 75 76 75 78 76 74 72 69 68
49 50 46 43 34 36 29 24 28 32 30 25 25 64 58 57 54 54 53 54 70 75 84 87 90 89 90 86 85 86 84 84 84 82 79 81 82 80 81 81 78 76 76 78 78 76 73 71 69
57 46 43 43 40 41 27 27 26 29 29 22 23 52 58 45 51 52 51 52 83 83 85 88 94 91 91 91 87 88 88 86 87 85 83 85 88 86 84 85 81 76 78 76 77 79 76 73 71
44 46 45 42 40 37 25 26 22 23 26 22 21 27 33 43 43 55 62 63 83 85 88 92 94 94 94 94 92 90 88 89 89 89 90 90 96 95 91 89 87 80 78 80 78 78 81 78 78
48 54 41 34 30 30 32 34 30 27 27 26 26 23 22 21 28 50 57 68 74 88 90 90 92 93 92 82 94 96 93 97 97 96 96 98 97 97 91 93 89 84 82 82 80 78 81 84 95
44 41 39 33 33 31 35 33 33 33 34 27 27 27 23 23 24 24 24 30 59 66 75 83 85 88 89 83 95 99 98 99 98 97 97 98 93 98 98 99 97 97 89 97 89 88 94 97 97
42 33 34 35 33 34 37 36 34 33 32 25 26 26 24 24 24 27 29 36 37 42 47 71 79 82 83 82 90 94 98 98 98 97 97 98 98 97 97 98 98 98 98 98 98 98 96 95 90
39 35 31 32 32 32 34 36 35 32 27 25 25 24 24 23 28 35 40 46 49 51 53 59 82 81 80 78 86 89 91 91 91 94 92 93 93 93 96 96 98 99 99 99 99 98 97 94 85
36 37 35 32 30 31 32 34 34 29 29 27 24 26 24 27 29 45 50 58 65 61 64 67 68 76 86 85 85 88 85 92 91 91 86 86 86 86 94 98 98 98 99 99 98 98 98 96 94
35 40 38 36 36 33 32 36 34 26 31 27 24 24 25 37 45 52 55 66 74 72 67 67 65 78 80 82 91 96 97 97 98 96 90 79 83 79 84 92 97 96 98 98 99 98 98 97 94
44 46 50 34 34 33 31 46 30 26 32 30 29 28 30 46 54 64 63 67 74 79 78 71 64 72 78 83 85 96 97 98 97 96 96 87 86 82 89 94 96 97 99 98 98 99 99 98 98
51 57 48 40 33 34 36 40 30 27 28 27 30 29 37 54 59 67 64 71 73 72 71 75 74 75 78 78 85 87 94 98 95 96 96 94 90 89 94 97 95 96 98 98 98 99 98 99 99
59 56 46 46 36 33 38 36 35 30 30 31 31 32 43 59 66 62 61 63 67 68 64 67 68 72 80 88 87 93 91 95 96 95 96 94 90 89 95 95 93 97 98 99 99 98 99 98 97
51 48 48 42 34 40 40 39 38 33 33 33 32 37 61 66 58 55 57 58 54 57 56 58 68 70 82 93 91 98 98 93 92 96 89 92 89 93 96 98 97 98 96 97 97 99 99 97 95
42 45 48 41 37 33 38 34 33 32 34 47 49 59 56 52 46 40 38 49 52 56 62 59 63 67 73 92 94 98 98 98 93 88 94 94 93 94 95 97 99 98 98 99 97 97 97 97 94
44 47 46 46 40 38 39 42 39 33 28 46 46 39 38 37 35 32 28 32 31 35 46 52 60 63 65 76 92 94 88 97 96 95 97 94 93 93 97 97 98 97 99 97 98 93 90 94 97
48 38 37 39 42 49 38 48 32 34 37 45 42 40 37 34 31 31 31 31 31 34 34 37 44 60 52 72 87 97 88 93 91 97 96 98 93 93 93 89 88 89 91 95 97 93 94 92 96
42 36 38 40 46 55 46 57 49 45 59 46 38 40 48 48 50 60 57 48 42 45 45 42 42 51 56 74 81 97 91 88 92 92 98 97 96 94 90 90 91 89 95 97 95 96 92 90 96
29 32 37 49 53 68 52 53 54 60 54 44 57 61 62 62 67 73 73 69 68 60 49 40 43 44 51 72 80 93 98 94 97 95 99 97 96 98 93 92 95 92 95 96 93 93 93 91 91
34 44 65 60 62 50 43 47 44 56 53 54 56 59 60 61 65 73 66 71 70 75 75 50 47 48 56 71 86 90 96 94 98 96 99 98 96 96 97 98 99 98 96 96 94 92 92 92 93
41 44 66 79 76 61 46 65 59 60 51 49 52 59 58 68 74 68 63 75 75 75 78 72 51 55 56 63 85 90 93 94 96 98 98 98 97 98 95 96 97 98 98 96 95 95 96 90 93
48 53 44 61 56 78 64 54 73 70 76 64 61 63 66 58 55 55 56 56 52 50 50 51 55 58 61 68 86 89 93 97 98 97 97 98 97 97 96 94 94 98 98 97 96 94 94 87 94
49 42 63 62 89 89 68 68 77 90 86 66 48 60 63 60 55 52 50 52 51 54 51 52 58 62 61 72 86 85 93 97 96 97 97 97 99 95 91 95 91 98 96 97 96 93 90 93 97
62 63 56 63 82 88 89 70 87 84 65 59 55 47 50 51 53 54 52 51 51 54 57 56 61 63 78 81 87 92 85 97 93 97 96 97 98 97 96 96 95 93 94 98 95 92 94 94 97
53 55 62 94 85 89 96 72 74 76 71 62 46 43 44 46 52 53 56 55 60 57 59 61 65 78 80 78 83 90 83 94 90 98 98 96 98 95 93 93 94 90 93 96 94 89 89 94 96

GFSSGP_sfc_rhum_201.txt.gz
RH
60 52 64 61 54 46 44 42 39 41 44 33 35 46 52 67 60 62 80 81 86 85 89 87 87 83 78 75 74 77 77 76 74 74 74 73 72 73 72 71 77 78 76 73 71 70 70 72 74
66 45 60 63 44 50 46 41 37 33 27 29 49 52 50 73 72 86 85 79 84 86 87 86 87 85 82 80 80 79 79 77 75 78 76 77 75 72 69 71 76 77 76 74 72 72 72 73 73
48 43 50 57 54 44 46 37 33 27 25 26 38 52 62 70 72 77 76 85 86 88 88 86 88 86 84 82 79 80 80 78 76 79 78 80 78 75 72 74 77 76 76 74 72 72 71 72 73
44 51 45 36 40 36 39 33 30 24 23 23 53 65 66 61 65 72 81 86 93 94 94 90 88 87 85 81 79 78 76 80 76 81 80 79 79 77 74 72 76 77 78 75 73 72 70 71 70
55 52 48 50 41 33 32 28 28 30 30 30 60 78 78 60 65 71 88 85 93 96 95 91 89 85 84 81 78 78 77 83 79 78 80 79 78 78 76 73 76 80 80 77 74 71 69 68 69
50 43 42 41 38 30 30 29 30 32 31 25 49 79 78 66 68 67 84 91 87 92 91 88 89 88 86 82 80 81 78 81 82 80 82 81 79 78 79 77 75 77 76 77 76 74 71 69 69
49 50 44 52 39 35 32 27 31 33 30 29 28 78 66 60 63 64 70 88 84 84 89 91 90 88 88 87 84 87 81 84 83 82 83 82 82 82 81 80 78 77 77 80 78 75 72 70 70
59 45 46 44 41 39 29 28 29 31 28 24 41 62 70 54 56 59 58 67 83 84 89 94 96 93 94 93 88 88 86 86 86 88 85 86 88 87 85 83 81 76 78 78 79 78 76 72 70
47 45 44 42 39 38 28 27 25 27 28 24 25 36 42 45 49 64 66 63 93 90 93 95 98 97 97 97 93 90 90 90 88 90 88 89 97 96 93 90 87 80 77 79 78 79 81 79 76
50 47 37 35 31 32 33 36 35 30 31 29 28 26 24 25 33 52 64 71 82 95 96 97 98 98 98 89 95 97 96 97 97 96 96 98 97 98 93 94 90 84 81 81 80 78 82 86 95
49 41 39 37 36 35 34 38 35 37 36 30 28 28 24 25 24 23 27 31 49 51 78 89 96 97 98 95 97 99 99 100 99 98 98 98 96 99 99 99 99 98 90 97 92 93 97 96 97
44 36 38 37 37 36 38 37 37 35 32 28 28 30 30 25 25 28 37 46 53 58 62 72 90 94 97 98 98 98 90 97 98 99 98 99 99 99 99 99 99 99 99 98 98 99 97 96 96
44 37 33 33 35 36 36 36 38 34 30 29 28 28 30 27 30 40 50 58 66 70 71 76 82 89 89 90 95 98 99 99 98 99 98 99 99 99 98 98 99 99 99 99 99 98 98 96 93
41 39 38 36 35 34 33 38 36 28 30 27 27 27 28 32 31 52 64 73 80 73 74 74 79 84 83 91 94 96 98 98 99 99 98 97 95 94 97 97 97 99 99 99 99 98 98 98 95
39 42 40 39 35 37 37 39 36 30 30 29 29 30 29 53 48 60 70 80 86 82 77 74 75 85 87 87 88 98 99 98 99 98 96 90 91 88 90 95 99 98 99 97 99 98 98 98 96
48 47 51 36 34 34 36 46 33 29 29 29 29 32 35 56 68 74 76 81 84 88 80 74 69 80 87 90 91 90 95 98 97 98 97 94 90 93 96 99 97 98 98 98 98 99 100 99 99
54 60 55 42 35 35 36 43 32 30 32 32 31 32 51 70 70 71 71 73 71 69 71 71 69 71 85 89 93 94 92 97 98 99 98 95 94 92 95 97 96 97 98 98 98 99 98 100 100
61 65 56 52 37 36 41 42 38 32 32 33 38 42 63 75 71 62 58 52 56 56 56 61 60 63 74 95 94 97 97 95 98 98 97 94 92 92 97 96 97 98 99 99 99 98 99 99 99
60 62 58 48 36 44 46 41 40 33 33 37 54 80 64 54 42 35 35 40 37 36 42 54 62 64 69 78 94 97 96 96 98 97 93 91 94 95 98 98 97 98 97 96 98 99 97 99 96
47 50 51 44 37 34 38 34 33 35 44 58 68 58 41 36 34 32 30 32 35 36 37 38 40 54 63 64 78 98 87 88 98 94 92 91 95 96 96 97 97 98 99 99 99 98 99 99 96
42 51 50 49 42 39 41 45 43 34 42 34 37 38 39 40 47 50 46 47 47 48 47 42 42 41 49 66 76 86 91 88 91 91 94 96 97 96 94 96 98 98 97 98 98 97 95 99 96
48 38 36 36 42 54 38 53 41 52 44 41 52 56 56 57 59 66 66 65 64 64 60 62 55 53 44 51 74 92 96 93 82 91 92 94 96 96 94 97 97 97 97 97 98 97 97 95 97
38 38 36 38 46 63 53 63 61 59 51 49 58 63 64 64 65 70 77 73 72 74 69 61 55 53 49 49 60 90 96 96 91 93 95 93 97 96 95 97 96 96 96 97 98 99 98 96 96
32 36 39 50 59 63 56 54 57 64 58 54 63 62 62 62 63 65 68 61 59 61 60 71 65 61 55 54 55 82 92 94 93 94 97 95 98 98 96 94 95 96 97 98 97 97 97 96 96
39 42 63 55 43 34 50 57 50 62 58 60 64 65 63 64 68 71 70 60 57 57 63 58 63 66 66 66 64 73 90 93 94 94 96 96 98 98 98 97 98 97 98 96 97 98 97 95 92
47 46 64 77 78 59 50 70 59 61 68 63 58 64 64 68 72 69 64 62 65 63 64 65 67 66 63 62 68 80 88 94 96 97 98 98 97 95 95 98 98 97 98 98 98 99 97 94 95
50 58 49 66 55 82 66 59 75 74 77 67 62 55 53 57 59 63 58 52 52 57 60 64 67 66 68 74 80 88 91 91 97 93 98 98 97 96 92 93 96 97 96 95 96 99 98 95 94
52 49 68 66 94 95 74 65 56 85 75 70 61 54 53 54 57 56 55 56 57 61 62 64 66 72 77 82 82 82 90 88 91 90 98 97 98 97 96 96 96 96 95 93 92 98 97 94 97
72 73 64 69 76 96 90 60 83 88 77 67 63 50 48 49 52 57 55 56 59 65 65 70 72 71 72 78 78 84 86 87 86 91 93 97 98 97 95 96 96 95 95 93 94 96 95 95 97
64 60 72 94 86 95 97 70 40 54 71 67 67 46 42 47 50 55 54 56 65 70 70 73 67 69 70 68 75 79 82 85 90 96 90 92 97 95 94 95 93 92 94 96 95 94 93 95 97

GFSSGP_sfc_rhum_207.txt.gz
RH
53 45 50 51 42 42 37 32 30 34 32 29 34 35 38 47 45 48 69 68 72 67 66 72 83 83 79 80 77 79 76 74 73 74 73 71 71 72 74 77 76 75 72 69 69 70 72 72 70
50 41 52 49 42 36 35 31 29 25 21 27 36 36 40 45 57 58 63 69 69 66 67 70 86 85 83 80 80 80 77 76 74 75 73 72 72 71 70 76 77 76 72 70 71 72 73 72 70
43 35 45 46 42 35 35 30 27 22 20 22 40 45 46 48 54 54 54 64 68 66 68 72 87 87 84 82 79 81 80 78 74 76 75 74 74 70 69 74 77 76 74 71 71 73 73 72 70
41 43 35 32 29 27 30 24 23 21 20 33 43 43 49 50 51 53 59 65 68 68 66 79 89 87 86 83 81 81 80 78 76 78 78 78 76 73 70 74 78 77 75 72 72 72 72 71 71
45 41 38 35 30 26 23 22 23 23 23 23 49 43 52 51 59 66 70 70 69 73 72 70 88 84 85 83 81 81 81 80 78 77 80 79 78 77 74 72 76 76 76 74 71 71 70 69 70
49 37 33 31 29 23 22 24 22 23 22 20 36 55 53 50 52 65 72 72 70 72 75 72 84 88 87 84 82 83 81 79 81 81 79 81 78 79 78 76 76 77 79 76 72 70 69 70 73
46 42 33 33 30 26 24 23 22 24 22 21 26 47 47 45 51 58 69 72 72 74 77 75 74 77 89 87 85 85 82 80 81 84 81 84 84 82 82 80 77 76 80 78 76 72 70 70 71
48 41 36 35 32 28 24 22 23 23 22 20 34 38 33 38 39 56 61 70 74 74 76 77 77 76 73 72 89 87 86 85 84 86 86 86 87 85 85 85 81 77 77 77 79 78 72 70 72
36 40 33 32 33 29 23 25 21 24 22 22 19 20 28 24 54 57 55 56 71 74 75 75 76 76 78 79 83 88 87 86 87 86 88 83 68 68 69 78 85 83 79 78 80 80 78 76 76
40 38 27 29 26 27 29 28 27 24 27 23 21 18 19 18 19 41 56 55 56 63 70 78 77 77 77 81 84 84 80 80 77 71 69 64 66 69 70 80 90 85 82 82 80 80 81 78 57
39 36 31 30 30 32 30 30 28 28 31 26 25 24 23 23 23 20 20 36 55 61 64 64 70 84 82 84 93 95 92 90 83 74 71 78 70 71 72 73 77 81 82 75 76 77 74 64 66
34 32 33 33 34 34 32 29 29 30 30 28 31 29 27 25 25 28 46 56 59 62 66 67 68 73 86 92 93 92 93 90 87 83 81 86 85 79 83 85 83 85 88 82 81 84 78 68 68
34 33 34 34 37 35 35 34 31 30 26 24 26 36 47 41 49 61 63 63 61 60 63 65 69 74 72 81 93 94 93 92 88 85 82 86 86 86 90 85 87 86 90 90 87 84 84 76 63
37 38 38 35 33 32 32 32 31 28 27 24 34 62 70 73 69 64 54 50 52 54 53 53 58 69 75 72 78 82 87 91 90 92 89 87 85 81 84 88 89 86 87 88 88 86 87 83 79
38 38 35 32 32 30 32 30 30 28 26 26 45 68 66 57 51 47 42 38 35 35 37 41 40 52 62 74 79 85 84 82 89 90 84 79 80 81 81 89 89 86 86 85 83 79 86 87 83
39 39 41 32 33 31 29 37 30 28 27 34 53 67 48 35 31 31 33 32 32 31 33 33 35 36 46 56 68 75 82 85 84 86 93 91 90 92 91 92 88 86 92 88 84 85 93 93 89
45 44 48 44 35 34 32 37 30 28 31 54 69 52 31 31 31 33 33 35 36 35 34 36 36 36 39 41 51 68 76 83 84 84 83 79 85 91 96 93 88 86 87 90 94 97 92 95 94
50 57 55 53 40 33 33 37 34 37 59 68 41 33 34 37 40 39 41 42 43 44 42 41 40 40 42 43 39 59 61 65 80 82 79 78 80 78 82 92 91 90 93 91 94 91 96 94 96
55 59 53 44 37 28 36 30 33 45 57 40 36 40 43 43 44 45 46 45 45 43 47 46 47 44 45 42 38 55 48 60 71 72 72 72 75 80 84 84 82 91 93 90 93 92 95 99 94
33 39 40 36 31 26 28 30 43 38 42 41 45 46 47 45 41 44 45 44 45 45 50 51 50 49 48 51 46 52 56 64 70 73 69 73 75 79 80 84 84 86 94 89 90 88 93 94 97
40 37 38 38 34 31 34 29 43 38 40 46 48 50 47 48 47 45 45 44 46 44 50 50 53 53 48 48 50 49 60 74 76 76 76 74 72 82 89 85 88 88 92 94 90 88 84 93 96
40 36 37 37 35 26 28 29 43 40 39 44 50 48 45 48 47 48 48 45 44 47 51 49 51 52 50 55 58 62 57 68 60 74 73 78 73 75 81 88 86 89 91 94 92 89 86 83 97
36 39 38 35 37 42 41 43 39 46 46 37 46 48 46 45 49 49 49 48 44 50 53 54 56 57 59 61 64 70 72 67 69 73 76 78 81 78 78 78 87 88 92 91 91 92 89 84 88
36 34 36 46 48 39 46 42 37 39 46 48 48 44 45 46 47 48 50 48 46 53 56 58 56 56 57 61 63 69 75 75 75 76 79 84 84 85 83 78 88 90 86 93 95 93 94 91 86
39 36 36 23 25 23 47 36 30 41 49 53 50 46 48 48 46 49 51 52 49 58 59 55 58 56 55 58 61 65 73 75 75 73 80 80 85 89 87 88 87 93 91 96 94 94 93 90 89
42 39 38 58 34 30 32 36 34 49 55 57 57 55 52 49 45 48 54 58 53 58 62 60 61 58 56 56 63 65 66 74 74 75 77 85 89 89 87 90 88 91 93 96 95 94 92 90 88
41 45 44 51 50 64 46 42 33 52 48 43 34 43 45 40 44 40 42 45 45 48 56 58 60 56 56 60 63 63 63 66 73 74 80 87 86 85 84 87 92 93 94 96 95 92 92 92 89
42 41 45 54 85 83 57 38 30 46 49 28 36 44 42 43 45 42 40 42 45 46 52 58 58 59 58 64 61 59 65 64 71 78 80 82 85 88 86 90 93 93 94 95 94 96 93 92 90
55 55 57 54 64 84 73 42 35 37 33 42 42 39 42 45 48 46 43 41 46 45 46 52 58 59 59 61 63 65 66 68 70 75 77 82 85 86 88 91 97 95 96 96 96 93 88 89 91
58 58 58 89 81 74 83 63 29 34 39 35 38 42 39 46 53 53 45 44 45 44 44 45 50 58 59 60 64 65 66 65 70 72 74 76 84 85 88 96 98 96 96 96 94 92 89 93 94

GFSSGP_sfc_rhum_210.txt.gz
RH
37 27 28 32 27 25 24 28 24 27 23 27 25 23 23 24 28 34 53 46 50 44 43 61 84 79 78 78 78 78 76 73 73 76 73 71 70 70 74 77 76 73 70 69 69 72 71 72 68
30 27 31 30 22 19 22 22 27 22 18 22 26 25 23 28 30 32 38 46 48 42 44 50 84 84 82 80 79 80 77 74 73 74 73 71 70 70 74 76 76 74 70 69 71 72 72 71 67
29 23 27 24 21 18 22 23 22 17 17 19 22 28 28 35 35 31 36 44 45 44 43 49 85 86 84 82 79 81 79 77 74 76 74 73 73 71 70 74 77 75 71 70 72 73 72 70 68
26 26 19 19 20 24 23 19 18 16 15 24 26 24 32 36 38 35 41 41 42 42 43 70 87 85 83 80 77 79 80 78 76 76 76 76 75 72 69 72 78 76 74 71 72 73 72 70 69
25 23 17 18 20 19 18 17 17 16 16 16 25 23 29 39 38 40 43 42 41 42 43 52 86 84 82 81 79 79 79 79 78 76 79 78 78 76 73 72 78 77 76 72 71 71 71 70 71
27 22 16 16 20 19 16 16 16 16 15 15 15 19 32 36 39 42 42 41 40 44 48 48 81 87 86 83 81 81 80 80 80 79 78 79 79 79 78 75 74 77 78 75 71 70 69 70 73
28 23 21 22 22 20 19 16 16 17 16 17 21 22 24 28 31 40 39 40 43 46 51 51 52 67 91 88 86 84 82 82 81 81 82 82 84 81 80 80 77 76 79 79 75 71 69 71 73
28 22 22 25 21 24 19 18 18 18 18 15 15 18 18 22 35 41 40 42 46 48 50 52 52 51 51 53 85 86 85 85 84 85 87 86 85 85 83 84 82 79 78 80 78 76 72 70 73
27 21 19 24 24 24 19 20 18 18 16 16 15 15 17 16 26 44 43 41 44 49 52 50 52 53 54 55 64 82 86 86 86 82 87 81 58 50 59 67 78 80 80 80 80 80 76 76 75
24 23 24 24 22 24 22 21 21 18 18 17 17 14 15 16 15 15 27 36 43 47 48 48 60 69 62 60 61 62 63 60 58 58 51 47 44 41 50 68 83 84 81 82 82 81 79 78 48
28 26 26 25 26 24 22 20 20 21 24 21 23 20 18 18 18 17 22 31 40 45 50 49 52 55 69 84 79 83 81 61 57 57 55 54 47 45 47 54 66 58 75 58 63 70 62 52 45
25 25 25 26 26 26 24 22 21 22 23 19 22 25 26 23 32 36 39 40 38 42 48 50 52 53 55 75 93 94 90 82 70 57 63 62 71 52 49 50 57 56 51 49 50 67 60 58 46
24 24 24 23 25 24 25 25 24 21 20 20 32 37 38 36 40 37 34 34 36 35 39 40 44 50 51 50 63 76 81 85 87 86 71 73 64 67 68 57 73 62 59 60 53 58 58 53 46
26 26 25 24 23 23 24 24 24 21 18 23 34 40 39 40 35 31 28 26 25 27 29 28 31 38 42 46 53 57 55 58 64 87 90 80 76 70 68 66 67 66 78 73 65 54 54 54 48
28 25 24 24 22 24 24 24 25 20 18 20 32 34 33 30 27 26 25 24 22 21 22 25 26 28 34 38 42 51 52 57 55 58 74 83 81 78 72 70 73 62 75 75 75 57 51 52 55
26 24 21 21 24 25 20 21 23 17 17 18 33 30 30 27 25 25 25 23 23 21 22 23 23 23 27 28 28 34 42 53 55 51 53 62 74 86 88 91 86 76 78 80 75 63 62 66 59
21 20 26 23 25 23 19 20 15 17 22 27 34 29 29 29 28 28 29 29 29 28 27 28 28 26 29 29 27 27 32 36 42 51 49 56 62 63 80 94 93 89 86 78 75 71 71 84 87
24 21 19 22 18 22 21 20 16 26 34 35 32 30 30 29 30 29 29 29 27 27 28 29 29 29 32 33 29 27 26 29 32 39 46 54 52 58 63 67 80 92 94 92 88 78 82 82 95
24 20 19 17 18 23 18 18 16 32 36 34 31 28 29 29 27 27 27 25 24 24 30 32 34 33 34 34 34 35 33 33 33 33 39 40 50 60 70 78 75 68 89 89 89 86 89 95 91
19 20 20 21 19 21 18 20 20 30 33 33 32 30 30 28 25 24 24 24 25 23 27 29 31 34 35 37 37 38 37 35 40 46 49 43 44 56 65 69 78 83 90 86 91 92 92 90 93
26 27 27 26 22 14 18 12 31 32 33 36 32 32 28 29 27 27 28 26 26 26 31 33 36 37 36 42 43 45 45 42 40 41 45 49 50 56 64 75 70 81 86 92 89 91 90 91 97
23 28 28 27 21 15 17 14 24 28 30 32 25 27 28 30 27 27 27 27 25 30 34 34 38 37 36 39 41 46 48 53 50 49 48 51 49 53 59 67 67 70 83 88 90 89 93 88 96
28 28 27 22 24 22 22 23 17 32 34 24 26 29 28 27 28 26 24 28 28 31 36 37 38 38 38 40 42 42 45 44 43 45 50 49 51 58 62 62 58 61 70 90 89 90 94 91 89
27 23 17 27 22 21 26 24 11 20 30 28 27 23 24 25 26 26 24 26 29 31 36 39 38 38 38 42 43 47 50 50 51 51 50 46 47 52 66 65 60 62 65 80 90 89 93 94 84
25 22 17 16 16 11 27 22 13 26 34 35 32 21 24 24 21 24 26 28 32 36 36 37 38 41 38 40 43 47 51 53 53 51 50 54 52 54 64 69 70 69 68 79 78 88 93 92 86
32 26 26 39 18 19 19 23 24 30 26 25 17 19 22 22 20 25 33 33 35 36 36 37 39 41 39 40 46 48 48 45 45 48 52 54 58 61 78 82 74 67 66 77 80 88 94 90 80
26 28 33 31 27 36 21 17 15 23 16 17 20 22 25 23 24 25 31 31 32 31 32 34 37 40 39 42 47 45 42 44 45 46 52 55 68 75 81 82 82 75 75 83 90 94 95 92 84
32 31 32 26 64 44 15 17 17 27 27 20 22 24 25 25 27 29 31 32 30 31 32 33 34 35 37 43 42 42 41 42 43 45 50 57 68 77 82 81 84 80 84 88 92 93 92 94 91
32 35 40 40 35 54 44 24 18 23 21 24 24 26 26 28 30 32 31 31 31 30 30 30 30 30 35 37 40 43 42 44 42 48 54 54 62 69 76 78 84 90 91 89 93 95 91 89 89
41 44 42 65 58 47 62 52 17 18 21 27 27 25 24 28 32 31 31 28 26 26 26 25 24 25 30 34 40 42 44 43 43 49 52 52 62 67 74 74 88 92 93 95 92 95 92 90 90

GFSSGP_sfc_rhum_216.txt.gz
RH
51 37 41 52 69 60 49 40 30 30 28 22 18 19 24 26 37 65 56 44 41 55 66 73 85 82 78 75 78 77 76 73 78 73 72 72 70 73 76 76 74 70 68 68 72 72 72 67 66
43 26 46 62 56 51 38 25 32 26 21 21 22 20 26 35 32 47 53 43 39 44 64 66 86 84 81 80 81 79 77 74 74 76 73 71 70 68 73 75 75 72 69 68 71 72 72 67 66
48 21 51 56 42 41 40 27 26 20 21 19 20 24 34 44 35 39 40 38 37 41 53 64 86 85 84 83 83 82 79 76 74 73 74 71 71 69 69 74 76 73 70 69 72 73 71 70 66
32 43 35 36 33 28 25 24 23 21 19 15 16 41 38 36 39 36 34 34 38 42 63 84 87 86 84 80 81 82 81 78 76 76 75 74 73 72 69 70 76 76 73 70 72 74 72 71 67
37 42 42 32 32 22 20 19 20 19 18 15 14 42 45 38 36 35 37 32 36 48 69 75 86 84 83 83 80 82 84 82 80 77 78 78 76 76 74 71 73 78 76 73 71 73 73 72 73
49 34 36 34 25 19 18 18 22 19 17 17 19 25 35 30 37 38 35 35 35 41 60 70 83 86 83 82 81 81 80 81 82 82 82 79 78 79 79 79 77 80 80 76 73 72 72 72 72
49 46 37 27 28 26 21 17 20 21 21 19 16 22 26 23 30 32 34 34 38 42 44 67 78 81 86 86 86 86 84 84 84 82 83 84 84 82 82 81 79 79 81 80 77 74 72 71 73
47 42 32 31 30 33 22 20 21 21 22 16 15 24 31 24 19 35 35 38 47 47 47 53 56 73 81 80 82 83 84 85 85 85 87 88 88 86 85 85 83 80 80 80 82 78 75 73 74
40 50 41 35 32 31 22 22 19 21 20 17 18 20 20 19 19 22 32 37 45 47 47 48 52 57 70 80 89 87 82 83 84 87 88 86 88 78 82 79 83 83 84 83 81 82 81 80 79
39 51 37 26 29 31 24 22 23 21 22 23 22 22 21 24 27 26 38 45 49 50 49 47 48 51 53 54 92 92 90 94 90 86 86 88 80 76 66 76 80 79 84 85 83 83 86 83 82
32 38 32 26 29 25 24 22 20 25 33 26 31 28 24 28 33 34 34 38 46 45 49 44 43 45 47 50 88 96 95 95 96 92 92 92 89 87 82 95 89 88 84 91 88 87 87 89 81
31 23 22 31 25 24 25 23 25 26 31 26 31 30 29 30 32 31 32 31 32 36 39 40 44 38 38 49 49 54 87 91 89 87 92 96 97 96 95 94 96 97 93 97 85 83 81 79 73
24 23 22 24 27 26 22 29 27 26 23 25 28 30 32 30 30 30 27 28 28 30 34 36 36 41 35 35 48 50 54 61 64 66 78 84 91 95 96 89 94 96 97 96 95 94 86 71 69
26 27 24 25 23 24 23 22 31 24 21 22 26 32 30 30 28 29 30 30 32 31 34 34 34 43 43 43 45 50 51 56 61 67 68 66 83 91 91 96 95 90 96 96 95 91 92 91 74
24 27 26 24 20 24 20 22 28 22 21 20 19 31 30 28 29 34 33 33 32 31 30 34 33 40 44 46 50 56 52 49 56 57 56 57 66 78 86 96 92 95 95 94 96 93 94 95 91
22 29 29 25 22 21 19 27 19 20 20 24 21 29 30 31 31 32 32 30 28 28 31 31 29 33 39 42 47 49 52 54 55 48 44 50 63 66 74 87 94 94 92 97 98 97 98 95 94
18 21 18 18 15 18 20 28 19 14 22 25 25 28 30 32 30 31 28 28 27 28 30 32 32 34 38 41 47 48 44 51 49 47 46 51 53 53 57 74 80 87 96 96 96 96 97 98 95
22 20 16 20 17 19 18 19 17 14 27 30 30 32 31 27 28 27 26 27 28 29 33 34 35 38 41 48 48 52 54 55 55 56 50 48 52 56 58 63 69 80 89 91 98 96 95 96 98
18 20 19 18 14 16 19 17 16 14 28 33 33 30 28 27 24 26 25 25 26 27 36 37 41 43 45 51 48 51 53 55 54 54 54 47 50 55 65 67 62 74 86 90 90 96 97 96 96
16 18 24 19 14 16 18 18 20 25 32 34 31 31 28 28 28 25 24 25 27 26 35 37 38 42 46 52 52 55 51 54 58 59 47 48 49 51 49 56 62 64 83 84 90 93 96 97 96
17 30 30 23 20 19 19 24 34 32 33 33 29 27 25 27 26 24 21 22 25 26 35 37 41 41 42 45 52 57 57 60 62 58 59 56 51 52 55 52 53 66 70 91 89 93 95 97 98
25 23 24 25 27 33 18 29 25 36 36 34 28 24 20 20 19 20 19 20 20 22 24 38 39 41 39 44 54 57 62 64 61 61 58 57 51 52 55 54 53 55 65 83 92 90 94 93 94
24 25 24 24 25 24 24 35 34 31 35 28 21 18 18 19 18 20 21 20 23 27 43 44 42 43 45 49 51 62 64 66 62 64 60 56 56 55 51 53 50 51 62 86 91 90 94 94 92
23 22 24 25 28 39 19 22 21 36 35 27 20 18 20 20 22 23 24 25 28 32 41 45 47 46 47 51 53 56 63 67 66 62 66 60 59 57 55 54 57 59 80 82 88 89 91 92 93
23 30 45 44 47 28 16 25 37 34 29 21 21 20 21 24 26 28 32 36 35 36 38 37 41 48 44 46 51 53 59 66 70 62 62 60 59 58 57 59 60 76 74 77 79 85 87 88 93
29 31 50 62 40 30 23 37 40 25 19 20 17 21 24 26 27 30 34 37 37 34 40 42 45 47 47 46 50 56 58 68 62 63 61 61 58 56 56 58 62 69 66 70 75 83 88 86 94
32 40 33 43 35 44 36 20 18 18 18 20 20 24 28 31 26 28 29 31 32 31 33 35 38 37 36 40 49 47 44 53 57 54 60 61 58 51 51 58 64 66 69 78 81 85 88 89 89
37 26 41 45 79 59 29 29 29 27 25 21 23 27 28 28 25 25 29 30 30 31 31 32 35 34 33 43 45 39 42 39 43 53 50 52 52 53 56 60 65 66 72 76 81 88 86 90 90
31 31 32 36 39 58 59 41 25 24 22 22 31 30 28 26 24 24 26 27 28 30 30 33 34 35 37 38 39 40 43 47 46 48 51 49 50 51 54 58 64 70 72 72 81 85 88 88 89
30 33 36 84 75 62 72 59 24 23 31 28 32 28 30 28 28 25 24 26 25 26 29 30 28 31 32 34 36 38 40 46 43 44 45 46 49 50 53 58 66 77 79 78 84 88 87 90 92

GFSSGP_sfc_rhum_222.txt.gz
RH
69 64 70 64 55 57 54 39 39 33 30 38 44 47 55 56 56 69 66 79 78 85 84 85 87 83 80 79 78 76 75 80 77 73 72 72 72 78 77 76 73 70 69 72 72 72 67 66 66
77 54 61 69 49 54 46 38 36 31 27 46 44 51 57 68 57 64 71 78 74 78 82 85 87 86 82 79 80 79 76 75 79 75 73 72 71 73 77 78 76 72 70 72 74 75 70 67 66
60 50 51 60 56 53 44 35 32 28 30 30 49 54 60 61 53 56 58 74 74 77 80 82 88 88 85 80 81 81 79 76 75 77 76 74 72 71 72 76 79 75 71 71 75 74 75 70 68
45 53 47 39 40 35 34 31 32 25 32 48 54 62 55 52 51 54 50 71 80 84 89 88 88 84 83 81 80 81 83 79 77 75 75 76 74 73 72 72 77 79 76 73 74 76 75 74 70
52 54 49 40 39 36 32 31 25 27 40 49 50 52 48 34 50 59 67 73 80 86 82 78 81 81 81 80 79 80 82 83 81 79 78 76 76 76 76 75 73 78 80 77 74 75 75 75 75
53 44 46 46 42 31 33 28 26 26 37 37 38 36 30 37 62 57 58 63 59 62 58 62 66 80 83 79 78 76 78 80 80 82 83 82 78 77 79 82 79 76 78 81 78 75 74 75 75
54 51 47 41 41 34 29 28 28 29 28 28 33 34 31 42 53 48 52 51 43 42 44 48 55 57 79 72 73 78 82 80 78 76 77 79 82 82 81 83 81 82 82 80 82 78 75 74 76
53 50 47 48 44 43 29 26 30 26 29 27 27 35 46 44 49 45 43 41 37 36 39 38 35 43 66 66 58 66 70 78 85 87 87 87 84 82 81 83 84 83 82 81 82 82 79 77 77
46 52 50 49 47 41 31 28 25 28 31 31 33 40 43 41 38 42 40 38 41 44 35 31 35 36 43 42 50 62 64 62 71 74 78 84 87 91 91 88 84 77 79 81 83 84 85 84 82
48 53 46 41 41 40 32 31 32 31 33 39 39 38 34 31 32 37 42 43 40 40 38 35 34 38 40 36 54 65 59 72 67 68 73 83 91 94 88 91 88 88 84 81 79 81 84 86 88
40 43 38 41 35 35 34 31 31 34 48 42 43 39 36 34 36 37 39 43 45 45 46 46 39 41 42 46 53 57 61 70 69 66 73 75 82 91 98 99 99 99 91 94 88 86 85 88 90
33 31 31 34 34 33 32 30 33 37 36 41 39 38 36 39 41 40 40 41 43 40 43 44 45 39 41 50 54 56 54 57 56 61 67 70 85 84 87 91 94 95 96 98 98 98 91 89 91
32 33 31 32 30 26 25 27 36 38 43 37 32 34 41 42 41 41 38 39 41 39 40 47 43 45 41 46 54 52 56 58 62 58 55 60 62 66 86 80 88 91 93 96 98 99 98 98 97
36 34 30 33 31 24 22 25 34 35 38 35 34 41 45 44 41 38 36 37 41 39 40 41 44 48 47 54 57 56 60 60 60 57 57 56 61 63 71 79 84 79 90 93 94 99 98 98 96
33 36 32 28 30 23 22 32 36 32 36 37 38 48 45 42 38 39 36 36 40 45 41 39 42 47 50 56 60 61 67 63 64 57 56 59 55 60 78 83 79 89 90 88 90 88 97 93 96
24 22 39 25 20 22 20 29 27 26 40 44 44 51 45 43 39 37 32 33 37 43 40 42 38 45 47 54 56 56 64 68 68 65 66 63 54 58 64 64 74 82 87 91 91 94 93 97 98
26 30 25 22 21 21 18 23 20 26 38 45 50 47 41 39 35 36 33 34 35 42 41 40 44 45 47 53 54 56 59 63 65 69 72 60 59 61 60 60 63 75 81 90 92 90 95 94 96
32 30 26 28 24 18 24 25 31 35 37 41 42 42 39 36 36 30 29 29 29 33 40 43 44 46 48 56 54 58 62 60 62 66 67 60 63 62 65 61 67 65 70 82 88 92 89 94 93
26 29 28 27 24 25 33 50 43 36 31 31 34 30 28 27 27 28 26 27 29 28 31 35 45 47 53 58 58 61 60 64 64 64 60 59 63 64 68 71 71 65 65 70 81 89 92 93 96
26 39 38 31 27 28 43 52 46 32 34 30 26 26 26 25 25 26 26 28 31 32 34 38 44 50 52 59 58 64 65 67 67 68 65 61 62 65 62 64 74 68 67 67 75 82 89 93 96
34 40 37 36 33 33 29 46 55 40 25 21 23 25 25 26 27 27 26 30 33 35 38 36 46 50 51 52 60 64 66 69 71 66 70 67 63 67 69 68 70 68 71 83 78 84 91 97 92
38 34 28 30 40 37 27 41 62 41 29 25 26 27 28 28 28 29 29 31 34 35 38 39 45 50 48 54 63 64 65 65 56 62 64 67 68 65 66 66 67 67 72 84 85 78 94 90 93
31 30 34 35 43 43 28 32 61 31 29 27 25 26 29 33 32 31 31 31 37 38 45 46 50 50 50 54 58 67 69 62 65 76 76 70 72 67 64 66 64 66 74 82 87 89 91 88 91
29 32 39 47 46 44 28 29 45 38 32 36 37 35 33 32 33 29 27 28 33 35 40 45 47 48 48 51 50 55 60 60 70 73 76 71 72 74 70 68 67 65 76 78 82 84 89 93 92
37 44 47 31 44 37 28 37 55 45 50 45 51 50 48 48 45 40 35 34 32 33 36 42 41 44 44 48 49 51 55 63 68 66 65 69 67 77 76 71 72 72 72 73 70 79 90 90 95
39 49 48 46 42 31 37 51 51 49 42 46 42 41 52 56 54 51 47 40 37 33 38 42 42 40 39 44 50 55 56 65 58 56 59 59 61 68 70 74 73 70 68 65 65 72 78 78 82
39 42 38 50 61 76 56 32 35 39 46 42 37 34 45 49 50 49 43 36 39 35 36 36 39 40 39 47 52 51 50 50 45 45 52 59 63 62 66 70 68 64 67 66 70 75 79 82 83
36 34 47 60 74 77 51 40 58 51 59 45 42 41 40 38 43 34 39 42 41 34 35 35 36 38 39 48 46 37 39 42 42 45 48 50 55 57 64 66 67 66 67 70 75 79 80 80 78
40 43 46 51 63 93 92 52 34 46 49 47 42 37 40 38 31 33 46 44 36 34 34 36 39 36 38 39 39 42 43 40 39 43 45 47 51 52 57 58 62 65 70 71 72 80 86 82 82
31 43 49 84 71 76 93 76 35 28 47 43 40 38 38 34 32 31 46 45 37 37 36 34 32 34 36 35 39 41 42 42 41 42 40 40 44 50 52 58 64 72 69 73 76 81 78 83 85

GFSSGP_sfc_rhum_228.txt.gz
RH
79 62 68 60 48 53 56 48 47 43 70 64 66 62 70 73 70 86 70 79 87 96 94 88 78 73 73 77 76 75 73 77 76 73 72 72 73 78 77 76 72 70 70 72 74 69 67 66 65
76 57 59 59 51 55 50 41 48 47 62 66 60 64 71 80 64 74 81 90 88 87 86 81 75 74 74 74 74 75 76 77 79 75 73 73 71 71 78 76 78 73 69 71 73 74 70 67 67
61 43 44 54 59 53 47 40 37 60 64 49 67 66 71 94 78 91 76 72 73 77 85 80 79 78 75 72 71 72 72 73 74 77 77 75 74 72 71 71 75 78 76 71 74 75 76 72 69
47 48 41 46 44 44 44 38 32 40 57 57 68 65 74 59 74 59 58 59 60 67 78 73 73 73 78 80 82 82 80 77 76 74 74 75 76 75 73 72 72 73 81 77 74 76 75 76 73
56 46 46 44 42 40 37 36 42 59 57 46 55 50 65 55 43 41 53 52 52 55 55 58 61 66 68 69 70 72 77 76 75 80 83 82 80 78 78 78 78 78 78 80 79 76 76 75 75
54 44 46 50 44 37 37 35 38 46 41 34 37 66 71 48 43 48 54 50 53 48 47 47 53 58 59 60 61 61 64 66 67 66 75 80 80 80 79 81 80 78 80 80 76 76 78 76 73
49 51 49 48 47 40 36 35 34 38 37 36 38 74 67 47 40 44 54 45 38 37 39 40 46 47 56 56 58 59 59 60 61 61 65 69 78 80 79 79 78 81 80 78 78 79 78 80 78
56 48 51 58 48 46 34 34 37 37 42 40 44 72 78 63 35 35 38 41 38 32 33 32 33 41 44 53 56 57 58 58 58 59 59 60 66 70 71 73 73 73 76 80 81 83 78 81 82
49 52 53 51 48 43 34 34 35 40 46 42 43 51 53 42 40 39 38 38 38 35 34 33 36 41 47 46 52 61 58 58 59 60 63 71 65 69 70 69 67 68 74 76 80 81 85 82 82
47 55 51 45 43 40 34 36 39 43 50 47 43 42 41 42 45 45 48 49 46 47 44 40 42 45 42 38 61 61 61 71 69 67 72 71 80 71 69 74 71 74 70 71 75 80 83 89 95
39 48 46 38 38 33 33 32 35 44 47 53 48 49 45 44 47 47 48 50 50 51 51 50 47 51 54 58 64 73 76 76 75 71 78 81 74 81 86 85 84 89 78 89 87 90 94 95 97
34 35 35 38 26 25 28 29 55 57 56 46 47 47 45 46 48 47 46 45 44 45 47 49 50 48 53 61 63 66 70 72 72 71 75 76 78 81 91 92 92 89 89 88 90 93 89 89 93
35 36 34 35 28 17 34 54 55 49 46 44 42 43 45 43 42 41 42 43 44 43 45 48 49 51 51 52 58 58 64 68 70 70 69 75 72 76 87 84 90 92 91 89 88 90 89 89 92
38 24 23 22 24 20 26 30 40 46 46 46 44 45 44 42 41 38 37 40 45 44 44 45 47 51 52 55 55 57 61 64 62 65 68 70 70 75 77 80 78 82 91 91 92 91 90 92 91
28 38 30 23 20 22 24 36 47 45 48 47 43 39 32 34 33 36 34 31 42 45 44 42 42 48 52 57 61 61 62 62 62 61 62 62 65 68 77 78 77 84 89 90 90 84 90 90 87
22 22 27 30 23 19 20 48 39 48 33 36 33 34 29 29 30 31 31 32 31 33 35 39 34 42 50 54 60 61 61 65 63 61 64 59 62 64 70 73 74 80 87 90 91 92 88 91 93
25 27 31 28 27 30 34 58 34 30 25 28 29 29 28 28 25 25 26 26 28 33 35 36 37 41 48 57 62 63 59 63 64 66 64 61 62 62 69 73 74 76 83 88 86 84 95 92 90
18 26 27 31 29 48 41 43 33 27 29 33 34 33 32 31 31 29 28 26 28 30 33 35 35 39 48 59 61 65 66 67 69 69 68 64 68 63 68 73 74 74 80 85 87 89 90 93 91
27 33 34 33 32 56 49 38 34 30 34 38 36 32 28 24 25 27 30 30 30 29 30 32 37 36 48 56 58 62 61 64 66 68 63 62 63 64 70 73 74 75 78 77 81 87 90 89 91
35 41 30 32 34 49 44 38 34 38 43 41 38 34 30 28 31 32 31 33 33 32 32 34 35 37 42 56 66 71 70 71 73 72 66 68 68 69 68 74 74 74 76 77 81 86 92 95 91
29 37 35 35 38 46 42 52 46 43 43 38 38 36 30 30 31 32 30 35 37 37 35 36 37 38 42 48 65 66 67 74 79 68 70 61 63 68 74 74 77 76 81 79 75 84 92 92 91
38 32 32 39 45 41 48 43 52 55 48 43 41 38 32 31 30 29 31 36 38 38 36 38 40 42 39 43 51 56 57 58 48 65 59 67 68 69 68 68 70 73 77 89 84 78 92 95 94
33 30 40 48 50 59 36 36 71 58 48 44 36 33 31 32 32 33 33 32 33 33 34 37 43 44 42 44 49 55 56 56 60 66 71 68 72 70 63 64 65 71 75 85 89 88 92 92 91
30 32 42 52 51 46 37 37 89 72 57 41 28 29 32 36 37 37 36 34 35 33 31 36 45 44 42 43 46 52 51 51 57 53 55 56 62 67 67 65 67 70 77 84 85 88 91 90 92
37 37 39 32 39 25 35 39 90 68 52 44 33 36 40 42 44 45 45 41 37 37 34 33 42 46 43 42 44 46 49 53 57 54 56 58 59 63 66 67 70 73 76 76 77 88 90 90 90
44 41 39 44 38 30 44 58 67 45 39 30 32 37 42 47 49 50 50 44 41 39 39 37 44 45 44 41 45 47 47 55 56 52 55 57 55 54 55 62 63 65 68 72 76 80 83 83 89
34 45 47 49 61 68 52 50 55 30 29 34 39 42 49 51 53 53 50 46 44 43 40 39 43 43 42 43 45 46 44 44 47 46 49 56 54 52 55 61 62 64 68 72 74 80 82 83 85
31 34 31 49 64 58 63 52 58 36 40 42 46 51 52 52 54 53 51 49 46 43 41 43 45 46 44 45 44 42 41 41 41 43 45 49 51 52 54 57 58 60 64 69 78 78 81 85 84
39 43 45 49 70 88 89 53 49 33 39 49 51 53 55 56 54 52 50 46 44 40 39 43 44 44 44 44 44 44 44 42 42 45 46 46 48 50 55 55 57 60 65 70 79 81 82 87 85
40 52 55 79 62 82 92 69 36 28 39 48 52 54 54 53 51 48 46 42 38 38 40 41 43 45 46 46 50 50 48 48 50 50 53 52 51 64 67 56 59 58 63 71 78 80 73 83 86

GFSSGP_sfc_rhum_231.txt.gz
RH
70 50 52 52 48 45 43 36 32 34 58 56 53 52 64 65 70 79 79 79 74 69 62 62 77 75 72 72 71 72 73 74 76 74 72 73 70 74 77 76 72 69 70 72 72 68 67 66 65
58 44 51 50 46 43 38 31 43 44 52 50 50 53 61 77 72 77 77 70 73 72 68 68 78 77 76 74 72 71 71 72 72 73 74 73 72 70 69 75 77 75 72 71 72 74 70 67 66
50 35 44 48 45 41 35 29 42 54 52 43 56 54 74 81 72 72 58 63 64 70 74 69 76 77 78 81 81 80 79 79 77 75 75 75 75 75 72 70 69 73 76 76 73 75 75 72 69
42 42 34 38 36 32 30 29 29 40 46 47 51 73 61 51 60 48 46 48 52 60 67 72 74 72 72 72 74 75 76 78 80 82 80 79 78 76 74 74 76 76 75 79 79 77 76 75 74
45 39 41 39 33 28 27 29 39 46 44 36 39 63 74 47 41 41 50 50 49 50 59 56 67 68 66 65 66 67 68 69 70 75 78 78 77 78 77 78 77 77 77 76 75 78 78 77 74
50 37 38 39 33 30 26 29 30 35 28 29 43 69 63 42 42 43 50 53 48 50 42 45 51 60 59 59 60 60 61 61 63 65 68 77 78 79 77 76 78 81 80 79 79 78 77 78 79
47 46 40 37 37 32 30 27 27 29 33 38 41 67 53 39 36 38 48 46 38 34 36 37 45 42 50 52 53 56 56 57 59 61 62 62 66 67 69 70 70 74 75 78 79 79 81 79 79
50 47 41 43 39 36 30 27 29 34 42 36 37 68 63 41 35 32 32 34 29 29 31 32 34 35 39 49 50 50 51 52 54 58 59 59 61 66 67 68 69 69 70 71 75 79 80 83 84
39 50 46 43 40 36 29 29 33 35 37 41 40 44 40 36 34 34 31 29 31 32 33 30 31 35 36 38 43 53 53 53 53 53 56 46 42 49 51 60 64 67 70 70 70 71 75 80 84
44 52 44 36 33 32 30 31 32 36 40 41 40 35 34 33 32 31 34 34 35 35 34 36 37 38 38 28 45 48 43 44 45 47 44 37 40 44 46 55 57 62 63 65 67 68 70 70 72
37 45 37 22 27 25 26 44 42 44 55 48 45 40 36 33 34 31 30 32 36 36 38 37 39 40 40 41 42 44 46 45 43 47 52 48 41 42 43 44 44 50 57 49 52 56 59 60 64
35 33 34 31 29 33 46 41 48 48 52 39 38 35 31 30 30 31 31 31 30 30 33 34 38 38 40 42 40 40 40 44 40 46 52 46 43 42 46 45 50 50 51 52 51 52 53 53 55
34 30 20 24 25 33 38 46 48 50 39 30 28 29 28 25 25 23 22 22 25 26 30 30 34 38 36 34 40 40 40 40 43 42 46 48 45 45 47 43 47 49 52 48 47 48 49 49 52
22 20 20 19 20 26 39 42 39 43 25 24 24 24 23 24 23 23 23 22 22 22 25 26 28 34 35 36 42 44 43 43 42 41 42 42 45 42 42 43 45 42 49 50 50 50 49 51 47
24 26 23 22 22 22 30 44 48 34 23 25 24 23 22 22 20 21 23 23 23 24 25 27 27 30 37 42 46 51 50 46 45 44 41 39 41 40 44 44 44 44 49 59 53 47 51 49 44
17 18 22 24 29 22 23 46 29 24 24 26 23 20 18 17 16 19 23 24 23 24 25 26 27 28 32 35 41 46 46 50 47 42 42 42 44 45 45 47 45 48 54 59 57 56 52 52 50
19 14 22 23 31 29 30 34 30 26 25 26 23 20 19 19 19 20 21 21 24 26 26 26 28 28 31 32 38 41 43 45 43 44 42 44 47 45 45 46 46 48 50 56 60 49 62 55 50
15 17 20 24 33 28 32 34 32 30 28 28 25 23 22 21 21 22 23 22 24 28 28 28 30 31 33 36 36 40 38 41 41 40 40 41 45 45 45 45 45 48 51 51 56 61 57 62 58
20 22 26 26 32 32 32 35 39 35 32 30 26 24 23 23 22 22 23 23 24 26 32 33 35 33 35 38 38 40 41 43 41 40 44 42 44 46 48 48 49 51 54 50 57 60 64 57 63
25 27 21 26 30 31 34 42 40 38 36 31 28 26 25 26 26 26 26 26 27 27 29 32 32 36 37 42 39 41 41 43 43 47 43 40 43 46 46 48 49 49 50 47 48 57 59 66 65
24 24 26 26 33 40 33 42 42 40 29 23 21 23 25 29 31 32 31 31 32 30 30 31 34 33 35 39 41 44 44 50 51 48 47 46 40 45 49 48 45 41 43 48 46 50 63 64 57
31 26 29 34 37 29 37 43 48 43 28 25 24 26 28 32 33 35 36 37 35 35 35 32 33 32 34 41 42 42 47 51 46 45 44 48 44 43 44 46 42 40 40 45 51 50 69 72 71
30 30 36 37 39 35 32 33 49 46 31 29 26 30 31 32 35 38 38 39 38 38 38 37 38 38 40 44 46 48 47 46 45 48 50 49 47 46 46 44 39 39 42 46 59 58 66 66 69
28 28 36 42 40 35 30 27 52 34 35 30 29 32 35 35 36 38 39 40 41 41 42 43 42 41 41 45 48 52 54 51 51 51 51 50 49 47 46 47 45 43 45 47 54 57 65 65 66
31 28 30 25 26 21 33 25 55 31 27 29 35 34 36 37 38 42 44 44 45 46 46 43 43 45 41 42 45 48 52 55 56 53 50 50 49 50 50 52 48 47 51 52 52 54 63 65 68
35 32 29 42 24 23 35 42 49 32 23 26 32 35 38 40 41 45 46 46 44 43 44 43 43 42 42 42 47 49 51 49 49 49 48 49 48 45 46 48 50 46 47 51 51 54 55 55 63
25 30 38 38 40 42 36 35 46 26 23 32 36 39 43 43 44 44 42 40 40 39 38 38 40 41 42 44 47 48 45 45 47 47 48 49 48 45 48 48 50 48 48 50 52 53 52 55 57
26 28 20 32 60 43 37 38 33 30 32 37 40 43 45 45 44 42 40 39 37 35 36 38 41 46 48 51 51 50 49 48 49 49 47 47 47 51 52 54 53 51 51 49 52 55 54 60 60
30 31 34 39 51 50 56 22 34 27 33 42 42 43 46 46 43 41 38 36 35 36 39 47 53 54 61 65 70 68 68 64 59 56 55 54 54 53 57 55 54 54 54 50 53 54 57 62 64
35 41 42 59 51 59 70 48 28 25 34 42 45 45 45 45 43 40 37 36 37 40 49 53 58 65 76 84 89 95 93 92 90 87 81 70 74 70 70 65 66 74 70 56 54 58 54 63 67

GFSSGP_sfc_rhum_237.txt.gz
RH
53 24 24 34 40 27 26 29 21 28 32 30 29 34 53 63 78 91 75 67 66 74 70 73 82 81 80 80 80 79 77 75 72 72 73 71 70 66 71 72 72 74 70 68 74 68 67 66 64
34 20 29 30 32 23 30 23 33 34 32 28 33 32 42 69 63 70 73 62 58 62 65 69 77 78 81 80 79 79 79 80 80 78 77 78 76 76 71 68 71 71 71 72 71 72 72 69 67
29 19 26 25 20 30 29 30 35 33 30 29 36 38 47 64 56 53 52 53 49 53 52 57 65 67 68 70 70 72 73 74 76 79 80 78 77 74 74 74 74 74 74 74 72 74 76 74 72
22 24 17 22 28 27 26 28 29 28 28 28 30 48 42 42 53 47 41 42 44 39 36 41 51 53 55 58 59 61 64 66 69 70 74 81 83 82 81 79 78 76 77 76 76 77 76 79 78
22 19 19 22 28 24 23 25 26 25 27 28 32 55 56 41 36 34 35 34 39 32 28 24 41 44 47 48 49 50 51 54 58 60 63 69 75 77 77 78 77 79 84 86 82 78 77 77 77
25 18 17 22 25 20 17 16 19 21 26 29 31 46 46 36 33 27 27 30 28 27 26 26 34 38 38 46 48 48 48 48 49 50 50 52 58 62 66 70 73 75 74 78 85 85 84 81 81
24 20 23 24 25 25 22 18 26 27 32 32 32 44 38 34 26 22 23 23 22 21 23 23 28 29 34 34 44 44 46 46 45 45 45 42 39 43 48 53 60 65 66 68 70 71 76 77 83
25 20 24 26 25 29 22 25 28 28 36 27 28 42 42 29 25 22 21 21 21 19 18 19 20 22 26 25 35 39 40 39 39 39 38 39 34 30 33 41 49 51 54 57 59 62 63 63 66
24 24 29 29 27 26 23 24 27 24 29 29 27 27 25 22 21 21 20 18 19 18 18 17 18 19 19 18 24 33 35 36 36 34 36 31 19 19 25 32 43 43 45 44 45 48 50 52 53
22 27 29 21 19 31 30 30 28 30 30 29 26 20 18 16 16 16 17 19 18 18 18 18 19 19 19 15 23 24 23 24 26 25 25 25 22 20 25 34 35 37 36 36 31 33 38 38 32
20 23 21 25 21 19 28 30 28 31 35 27 24 20 17 16 17 15 14 15 16 16 18 18 19 20 19 20 22 23 24 26 25 27 28 33 26 24 23 27 28 31 34 27 26 25 23 25 24
22 21 22 29 27 26 30 24 24 25 26 19 19 16 14 14 13 13 13 12 11 12 14 14 16 18 20 23 22 22 22 24 24 29 34 34 35 29 28 28 29 34 31 32 30 28 26 24 21
19 20 22 22 27 25 23 26 24 23 19 16 15 15 15 14 14 12 12 11 11 11 14 15 17 19 18 19 24 25 25 26 26 26 30 33 34 34 31 30 28 29 30 29 31 30 29 26 21
16 16 17 19 22 25 25 24 22 20 16 16 16 16 14 14 12 12 12 12 11 11 13 13 14 19 18 20 23 26 27 28 29 29 27 24 28 29 28 28 30 28 30 30 29 31 30 26 23
14 17 17 15 14 20 17 27 25 18 16 16 15 13 14 13 12 12 13 13 13 14 14 17 18 20 25 25 25 32 30 27 29 30 26 22 24 25 23 28 31 31 30 35 32 30 29 30 27
15 12 13 17 14 15 16 30 23 17 17 17 14 12 13 11 10 11 13 13 14 15 16 17 17 19 21 22 24 26 26 30 29 25 26 25 25 23 24 27 28 34 36 35 35 36 39 36 33
9 10 11 18 16 14 16 29 22 18 17 16 14 13 12 12 11 11 12 13 14 16 17 18 17 17 18 21 24 25 24 26 26 26 25 27 28 25 25 26 26 27 32 35 36 35 38 38 36
14 13 12 14 15 15 22 27 23 19 18 18 14 13 12 11 11 12 13 15 15 17 16 16 17 18 19 23 22 24 24 26 26 28 29 27 28 28 28 29 28 28 30 33 35 35 36 38 39
12 13 13 12 20 18 22 26 25 21 18 17 14 12 11 10 12 13 14 15 15 15 16 16 19 19 23 26 26 26 27 27 29 30 28 28 29 31 32 32 30 32 32 31 34 36 39 40 37
13 12 13 13 13 14 22 28 27 24 18 15 13 11 11 14 14 15 15 14 14 14 17 22 24 29 30 33 32 33 32 33 32 34 32 30 30 34 32 33 33 33 35 35 35 36 39 38 35
15 14 16 17 16 16 21 29 30 22 15 13 10 10 12 16 17 16 15 14 17 17 22 25 30 31 31 33 36 39 40 43 43 40 38 35 30 34 36 37 34 34 35 38 39 38 44 42 38
16 14 17 19 20 20 19 22 30 21 17 12 10 12 14 18 17 16 16 18 19 24 29 29 31 32 32 35 38 40 45 49 45 45 43 43 37 34 34 34 32 33 33 34 37 33 37 41 44
16 15 15 18 23 20 23 15 21 17 17 11 12 14 17 18 18 16 17 21 22 28 32 33 35 37 40 42 51 56 53 51 48 48 50 49 47 43 39 36 32 32 33 32 32 34 33 34 38
13 11 19 25 23 22 17 14 23 22 13 12 13 16 19 18 18 18 21 23 26 30 35 38 39 41 51 64 65 71 77 72 67 59 61 58 53 50 46 41 39 37 35 34 34 34 35 36 35
13 14 21 18 18 14 12 14 28 18 10 13 18 18 19 19 20 23 25 28 31 35 39 39 44 52 61 71 78 82 88 89 88 80 68 62 58 56 54 50 47 43 43 41 40 38 38 37 39
16 13 18 33 20 19 14 15 30 14 8 12 16 19 21 23 23 26 28 32 33 36 44 52 63 75 78 83 91 92 92 95 93 89 85 85 75 64 55 51 52 49 46 46 43 42 43 40 43
12 14 17 23 15 20 11 18 20 10 10 14 17 22 26 26 26 26 27 30 35 41 56 57 61 74 80 89 95 95 95 95 96 95 95 96 91 83 73 60 56 53 53 51 47 48 48 42 41
13 10 16 16 47 29 10 13 19 14 16 16 20 24 27 27 26 26 28 35 39 49 52 56 71 80 84 94 95 95 96 95 96 96 96 95 93 91 88 83 75 64 55 55 54 53 50 49 51
14 13 13 18 19 30 24 16 10 12 16 18 21 23 28 28 25 25 31 39 46 50 58 75 82 93 95 95 95 96 96 94 93 96 96 96 94 91 91 87 83 78 66 58 62 62 56 56 52
17 18 16 45 35 30 40 28 9 12 14 20 22 25 26 27 24 29 37 45 51 55 74 84 93 95 95 95 95 95 92 91 92 92 91 91 94 91 90 89 88 85 70 68 70 69 58 56 60

GFSSGP_sfc_rhum_243.txt.gz
RH
69 53 77 62 61 70 49 58 52 49 53 59 54 66 83 76 89 96 79 47 45 43 38 46 56 58 59 59 60 62 65 68 72 78 80 81 79 76 74 72 74 74 74 72 70 73 70 67 65
72 45 55 69 60 60 55 54 56 48 60 58 55 62 71 82 63 59 62 46 39 34 32 42 48 49 52 53 54 54 55 56 58 62 69 77 79 80 81 78 76 76 74 73 72 74 74 73 70
67 45 49 67 56 62 63 47 40 35 37 48 57 55 62 60 53 54 39 42 39 32 31 35 44 45 45 49 49 50 50 50 50 51 53 60 68 72 76 80 80 78 80 79 78 79 76 74 76
43 51 49 51 48 40 43 43 38 38 38 46 54 65 52 37 44 38 33 33 36 30 28 29 39 41 42 41 46 47 48 48 48 48 47 49 52 57 66 72 77 80 82 83 83 84 79 79 79
48 55 52 48 40 44 42 36 38 42 40 50 52 66 58 34 30 28 29 29 34 26 24 22 38 38 39 40 39 43 48 47 45 45 45 45 43 42 46 54 62 68 72 75 81 82 88 84 82
51 48 49 54 47 42 42 38 37 39 36 45 50 52 54 36 29 27 27 29 23 22 22 24 32 36 37 38 38 38 39 40 42 43 42 43 44 38 35 39 46 49 54 58 63 67 72 80 80
62 54 48 47 47 46 41 38 41 33 35 35 40 51 49 41 33 30 30 22 22 24 23 23 27 28 34 36 37 36 39 38 37 38 39 40 41 40 38 36 40 42 45 48 49 51 54 57 60
51 54 43 48 48 52 36 33 28 29 29 23 25 36 38 30 24 24 23 24 24 24 27 26 27 29 31 34 34 39 41 42 44 41 37 38 40 43 45 40 40 41 43 44 46 45 44 45 48
44 50 50 48 50 46 33 32 26 23 25 22 21 24 25 20 20 21 23 23 20 19 24 23 25 24 28 24 26 43 42 41 44 42 45 42 43 43 44 46 45 39 41 42 42 42 41 40 44
44 56 48 39 40 35 30 32 30 28 26 25 22 21 19 19 20 20 22 24 22 21 24 23 25 27 29 19 32 44 37 42 45 39 38 41 35 43 40 46 49 43 41 40 42 42 41 44 41
38 48 41 35 30 28 29 28 27 30 33 29 27 24 21 19 19 19 20 20 20 20 24 26 25 27 28 30 41 48 38 56 52 48 49 44 37 44 49 54 55 58 53 49 47 46 46 42 41
38 34 34 34 32 29 31 27 29 27 29 24 23 21 20 20 19 19 20 20 21 22 23 25 28 28 29 39 39 41 40 48 46 54 46 43 49 54 47 55 58 57 60 57 55 56 48 43 39
37 33 28 28 26 26 24 29 28 27 22 18 17 18 19 19 18 18 18 19 20 20 23 26 28 30 28 33 40 42 43 46 49 44 43 58 45 40 44 47 58 59 60 63 59 58 54 48 42
31 33 31 30 27 25 26 28 26 24 18 17 17 19 18 18 18 18 19 20 22 22 24 26 28 31 34 34 37 42 46 46 46 53 45 34 45 46 38 41 51 60 56 57 59 57 55 50 48
26 33 34 27 27 26 23 30 28 23 20 20 19 19 17 16 16 19 20 22 24 22 22 24 19 22 30 34 38 40 52 42 51 37 35 37 39 37 43 49 53 49 49 48 54 53 55 58 52
27 30 36 25 27 28 29 44 28 23 23 22 19 19 16 16 18 20 21 23 20 22 22 20 20 25 29 29 32 37 36 44 42 50 45 46 44 46 38 55 57 54 56 53 58 62 62 62 60
24 26 28 33 21 27 32 39 27 22 19 20 20 16 16 19 20 22 22 22 22 21 22 22 24 26 32 32 37 39 39 47 43 44 43 36 48 41 37 40 46 55 50 54 55 60 65 64 64
26 26 24 29 29 30 34 36 28 23 20 22 18 19 21 22 22 21 22 22 20 22 23 25 27 32 31 37 37 41 43 43 47 48 51 43 42 39 41 45 56 58 57 53 57 54 57 58 57
23 26 27 23 22 34 36 37 31 26 21 20 20 21 24 25 23 21 20 21 23 22 26 30 39 37 41 43 47 48 49 57 57 54 47 44 44 44 44 44 43 47 58 49 49 56 53 60 63
21 23 26 23 21 33 38 40 35 32 20 18 19 23 26 23 22 23 23 23 23 26 36 45 46 51 54 56 54 58 64 67 68 69 66 60 53 49 45 44 46 41 47 52 58 58 64 64 67
24 24 28 25 24 30 38 47 41 29 16 14 18 22 23 23 25 26 24 24 27 35 47 49 52 57 60 59 61 63 66 68 69 71 73 68 66 63 55 50 50 58 60 64 62 61 62 53 64
29 26 24 26 31 44 30 58 35 18 17 18 22 21 24 24 26 26 26 27 36 48 55 56 59 61 60 64 71 77 86 89 80 82 85 81 73 70 65 55 49 48 52 56 59 50 64 73 70
26 22 24 27 30 41 35 42 40 20 21 21 22 23 24 25 28 28 28 32 41 53 60 60 60 67 73 82 86 92 95 94 95 95 95 90 83 75 71 65 56 53 55 59 57 53 53 64 73
18 21 36 42 45 35 22 29 49 24 23 22 23 24 24 27 28 27 32 37 48 56 58 64 72 82 83 89 93 96 97 96 96 96 96 96 94 81 77 70 65 58 55 52 54 54 57 61 64
22 34 44 33 45 32 30 47 37 22 23 25 27 26 26 29 31 32 38 46 56 65 71 78 91 94 94 95 95 96 97 97 97 96 97 96 96 95 87 81 77 69 60 56 54 54 55 55 57
22 29 38 34 44 41 34 59 29 22 22 24 25 26 28 32 29 36 42 50 60 62 72 88 94 95 91 90 91 93 93 96 96 95 95 95 96 96 95 90 86 85 78 64 56 57 64 57 65
19 24 23 39 49 52 49 30 28 22 27 28 29 28 33 34 32 36 43 50 55 63 69 77 86 89 87 87 88 92 92 94 96 95 96 96 92 92 93 93 90 88 88 85 69 65 60 58 64
17 18 26 44 56 48 42 37 39 33 36 32 32 31 36 31 34 38 47 52 59 65 69 77 80 84 84 88 86 90 91 93 94 96 96 95 91 90 93 93 89 86 86 86 86 78 66 64 63
28 30 30 34 43 57 70 48 28 37 35 36 32 31 37 32 35 40 49 53 64 66 71 81 79 84 83 87 80 89 93 94 96 96 96 96 91 93 92 89 86 84 84 83 87 84 72 71 70
26 30 40 75 50 73 88 66 28 33 33 32 33 36 32 32 35 42 53 57 70 73 73 78 77 81 81 81 77 89 94 95 96 96 96 95 91 90 90 83 85 82 83 84 84 85 77 75 79

GFSSGP_sfc_rhum_246.txt.gz
RH
73 62 82 66 60 64 69 77 64 63 74 72 65 77 84 78 88 93 64 66 42 39 35 49 51 49 51 52 53 54 53 54 54 55 59 66 74 80 81 80 77 75 74 73 72 74 74 70 67
81 49 62 72 61 68 64 52 64 63 70 57 59 63 72 79 65 43 54 37 42 38 32 40 45 46 47 48 50 51 52 51 50 51 50 52 57 65 74 78 82 78 78 77 75 75 75 76 73
67 50 52 61 60 69 64 52 51 43 51 54 61 57 55 48 50 46 41 41 38 36 32 33 43 44 44 44 44 46 50 50 49 48 48 48 47 49 54 64 72 79 82 82 82 80 77 78 78
48 54 50 50 62 55 55 52 42 40 48 50 56 68 52 36 41 37 33 36 36 28 26 28 36 39 40 40 41 41 43 43 44 45 46 46 46 45 42 47 55 62 70 77 82 85 84 84 82
55 55 52 59 58 54 48 41 40 49 54 51 53 61 53 44 39 34 31 29 34 26 27 26 33 35 37 38 40 41 42 45 45 43 43 44 43 43 41 39 44 48 49 58 64 72 81 83 86
54 48 55 70 58 49 47 39 33 39 41 49 50 54 52 37 37 32 31 28 27 27 27 26 32 37 36 38 38 39 44 45 45 49 51 46 43 43 42 41 41 43 44 46 50 54 59 67 73
56 54 55 60 59 52 40 34 34 31 33 31 42 52 44 28 27 24 25 23 22 24 25 26 30 29 37 37 34 37 40 40 42 45 46 48 52 53 49 42 42 43 42 46 47 48 48 48 51
59 50 50 59 57 57 34 29 26 27 27 22 25 34 35 26 23 22 21 21 20 20 24 25 27 28 31 35 33 35 37 38 38 40 41 41 44 44 46 52 48 43 46 43 47 47 46 45 44
45 55 59 56 52 46 35 32 26 23 23 22 23 26 25 21 20 20 22 22 24 22 23 23 26 25 29 29 26 42 41 37 38 44 42 41 41 33 38 45 52 49 43 46 44 45 46 45 48
47 61 56 44 40 38 33 33 31 27 27 27 24 22 20 18 20 21 24 26 25 24 25 24 27 29 30 24 30 44 39 48 47 46 44 52 45 37 37 47 47 49 50 46 45 43 43 46 43
43 56 42 36 30 26 28 29 30 30 34 32 27 25 20 20 19 20 21 22 23 23 28 26 27 29 32 33 40 54 48 52 53 51 50 56 36 52 56 57 50 53 51 53 51 49 49 48 46
42 36 37 39 36 31 32 29 30 29 30 25 23 24 20 20 21 20 21 22 23 24 24 26 30 31 31 37 42 46 45 44 52 48 51 58 60 63 57 53 59 59 56 58 60 63 53 49 44
37 36 30 28 28 30 26 31 29 28 22 19 18 18 21 20 20 19 20 21 23 24 25 27 30 31 26 34 42 44 41 41 44 50 49 57 61 40 46 55 60 57 64 61 64 66 62 56 46
38 32 29 28 28 27 28 30 28 25 20 18 18 19 18 18 19 21 22 23 25 25 27 28 28 24 33 28 37 41 38 39 48 51 53 48 41 42 46 49 52 59 62 55 61 61 61 60 52
32 41 33 31 29 28 24 32 30 27 19 19 19 18 17 18 20 22 23 26 27 23 23 24 25 27 29 35 41 40 49 40 48 50 44 40 43 39 45 49 55 60 59 59 54 53 58 62 56
30 38 44 34 31 28 30 45 30 24 20 22 18 20 20 21 22 24 23 24 26 23 26 24 26 32 34 36 37 39 41 49 54 49 48 48 44 50 47 51 64 64 65 65 63 61 62 67 66
27 31 38 33 31 33 34 42 30 23 20 19 20 22 22 24 24 24 23 24 25 24 26 34 43 46 47 50 50 47 46 52 52 50 52 51 51 46 51 48 46 56 64 66 64 58 69 66 68
30 30 29 28 32 32 36 36 29 22 19 20 22 25 26 25 24 24 25 24 24 28 37 47 49 50 54 59 58 59 57 58 64 62 62 58 58 52 49 49 50 58 67 68 67 65 64 67 60
28 28 25 26 29 37 38 38 31 21 19 22 23 23 26 27 26 26 25 25 28 37 49 56 59 58 59 63 67 68 68 63 63 62 64 66 68 68 65 58 52 54 58 48 55 58 62 66 66
25 24 26 25 31 37 42 42 38 21 18 21 22 26 28 26 27 27 25 31 38 46 56 57 57 57 62 69 71 74 71 70 67 65 62 64 64 69 67 67 63 54 54 53 53 53 64 69 67
28 25 30 25 36 38 43 53 25 20 18 19 21 25 26 28 31 29 29 36 45 55 61 58 64 66 75 77 82 86 84 83 82 78 79 77 72 74 74 74 73 65 60 58 57 63 68 71 68
30 27 24 30 35 49 42 59 36 24 22 22 27 28 28 29 31 28 34 42 50 56 57 65 71 80 81 84 89 95 97 97 95 95 92 89 83 81 77 75 74 70 61 66 66 58 68 73 73
22 23 29 33 34 44 39 46 30 26 27 27 27 28 28 30 32 31 37 44 52 54 60 64 73 76 78 84 84 92 96 96 94 95 95 91 89 87 86 81 73 75 68 59 56 55 62 64 74
19 24 31 49 49 40 36 32 47 31 28 30 29 30 29 34 29 32 38 46 56 56 61 65 71 73 74 78 82 87 91 91 92 89 96 95 92 90 88 85 81 80 76 66 60 59 64 65 64
22 31 36 25 38 28 38 37 33 25 28 32 34 33 33 36 31 36 45 54 58 64 65 67 76 76 73 74 80 86 87 87 97 96 97 96 96 96 94 92 92 87 80 74 66 61 60 60 64
24 29 34 28 33 37 37 48 32 26 30 31 32 32 36 33 33 38 48 56 59 63 65 65 76 74 74 76 83 84 79 95 96 97 96 97 97 96 91 93 93 88 86 90 78 68 64 60 66
18 24 26 37 51 52 47 29 29 30 32 33 35 36 42 34 36 39 49 56 62 68 67 69 72 72 74 75 83 81 91 95 97 96 97 97 96 91 90 92 91 88 86 88 92 87 73 63 67
18 21 22 43 49 39 38 41 42 42 40 38 39 42 42 35 36 40 54 59 64 62 66 64 68 74 72 74 74 76 83 88 89 96 96 96 93 92 92 90 89 85 86 88 88 92 80 74 71
28 27 34 41 46 54 65 48 47 44 40 42 41 45 39 38 37 42 56 59 65 59 61 71 70 74 72 74 69 75 80 85 88 96 96 93 93 92 91 88 86 85 85 82 88 90 86 83 79
28 32 48 68 42 74 90 72 38 42 38 40 43 46 38 37 37 44 56 64 68 67 70 69 70 73 67 66 70 74 78 85 92 96 96 95 94 91 90 90 86 83 83 86 87 87 79 87 84

GFSSGP_sfc_rhum_252.txt.gz
RH
81 65 75 64 63 71 80 80 77 85 83 74 66 78 83 77 79 91 62 45 49 41 34 36 44 46 49 49 49 50 49 51 56 56 54 53 53 51 51 50 51 57 65 73 78 80 80 78 76
84 55 60 62 72 81 78 64 75 72 73 67 54 61 72 64 58 48 46 41 38 34 30 30 40 41 42 43 45 46 47 52 52 52 54 59 60 55 52 50 49 48 51 53 61 73 79 80 80
67 43 51 66 74 81 76 61 55 59 59 61 61 53 48 57 55 56 45 37 35 25 30 24 37 38 40 41 42 43 44 45 48 49 51 53 55 61 62 61 56 49 48 48 50 53 66 76 79
50 47 51 67 72 65 67 56 48 53 46 49 59 59 48 46 49 44 30 25 23 24 26 32 35 36 38 39 40 40 42 43 45 46 47 47 51 54 55 57 57 60 51 49 48 50 51 57 71
57 53 66 69 68 58 48 39 43 57 49 49 48 57 55 26 33 26 23 22 27 25 26 27 37 36 37 38 38 39 40 42 44 44 44 44 46 47 49 52 52 55 59 51 50 48 50 50 52
61 53 68 77 65 54 40 35 33 36 32 35 55 44 34 26 25 26 24 23 23 23 24 26 35 38 37 37 38 39 40 40 41 42 42 42 44 44 44 44 45 50 53 56 53 49 50 50 50
54 62 71 71 64 56 43 32 33 33 32 28 37 35 32 23 25 25 23 22 22 24 25 26 30 31 41 43 41 40 40 41 41 42 42 42 41 42 41 41 43 46 49 53 57 60 51 49 50
56 58 66 71 65 60 37 30 29 30 30 26 27 31 30 25 24 23 22 22 23 24 27 25 27 26 30 37 40 40 43 43 42 42 42 41 42 43 42 39 43 45 46 47 51 54 60 54 48
47 60 68 65 59 44 31 29 28 26 26 26 26 27 26 21 22 22 26 26 28 24 28 27 27 26 28 28 28 42 47 46 48 49 48 43 43 48 46 47 41 42 44 44 49 51 51 56 56
54 65 59 43 45 45 39 34 30 27 27 24 22 20 19 19 22 23 26 28 27 26 26 26 26 30 29 25 32 42 41 44 48 52 52 51 50 51 41 44 47 42 42 42 44 46 50 48 45
49 57 41 36 34 32 35 34 30 30 31 30 27 22 20 22 23 25 25 27 28 27 30 28 28 28 29 32 41 46 45 55 51 49 48 58 46 56 56 65 64 62 55 54 56 59 60 53 57
48 40 38 40 33 31 33 31 32 32 34 23 22 22 22 24 24 26 26 28 28 28 27 29 30 30 37 47 50 45 47 50 48 48 48 53 61 66 65 68 65 61 66 68 68 73 64 64 61
42 38 35 33 31 32 26 31 29 28 20 19 19 20 24 26 27 26 27 25 26 28 30 32 36 51 51 52 54 56 60 61 57 54 53 56 56 60 64 63 62 65 68 70 68 68 66 63 60
33 30 30 30 29 27 28 32 26 25 20 18 20 23 24 25 26 26 26 27 29 31 34 38 50 54 54 54 54 57 61 64 62 61 59 55 57 57 55 59 63 67 68 67 68 68 67 65 66
35 36 34 35 31 30 27 34 34 24 20 21 22 25 25 25 26 27 27 30 34 37 38 49 54 52 55 56 57 59 60 58 62 63 61 60 60 61 62 64 66 70 69 67 69 68 66 69 62
41 43 49 36 32 32 32 44 28 21 21 24 25 28 26 27 29 31 31 32 34 39 44 51 54 59 64 62 64 64 66 68 69 66 62 61 64 67 69 71 70 72 73 73 72 68 67 70 69
32 41 45 44 38 33 36 42 28 22 22 24 28 30 30 30 29 28 31 31 38 40 48 57 59 64 58 61 70 72 70 74 72 71 70 67 65 62 64 68 74 74 74 76 71 63 74 70 69
31 34 38 39 39 35 38 35 24 21 22 26 30 31 32 31 30 29 30 32 41 46 53 56 56 59 55 59 67 68 70 71 72 75 76 74 74 69 68 66 68 70 80 78 79 75 76 76 71
30 29 26 42 36 38 39 30 24 22 24 26 30 31 33 33 31 34 29 34 42 49 51 58 62 62 53 60 69 73 79 76 77 74 73 76 76 75 74 74 71 73 76 79 75 77 75 76 76
28 26 37 45 38 37 38 31 35 21 23 27 32 33 35 35 36 31 32 36 44 48 51 53 56 56 48 59 65 70 74 75 76 79 73 73 77 79 76 81 84 79 82 75 76 80 76 75 74
29 32 30 25 45 44 47 54 30 25 26 27 28 35 37 38 39 33 34 39 50 53 60 52 54 51 54 60 64 69 71 79 81 81 81 79 76 76 79 82 86 84 85 86 78 81 79 75 78
28 30 27 36 46 47 53 67 34 31 29 28 34 40 40 41 36 35 36 45 59 54 52 53 51 54 55 59 65 74 87 92 87 87 88 88 80 77 79 80 82 86 88 90 84 74 79 75 76
22 29 34 44 44 57 58 60 52 34 34 32 36 39 40 44 36 38 38 51 53 50 53 53 50 53 54 59 65 78 87 86 86 89 94 91 89 87 85 82 86 89 91 90 85 82 78 70 72
23 33 38 49 50 52 49 44 49 42 35 37 37 39 41 44 38 38 38 57 57 54 59 52 52 51 51 56 72 80 85 88 92 92 96 96 96 92 87 87 91 91 92 88 88 82 83 74 76
25 25 28 20 27 32 36 38 45 36 36 41 42 44 45 43 41 41 45 59 60 63 55 50 58 66 58 65 74 80 84 87 87 94 97 96 96 96 92 91 92 90 93 90 89 86 85 84 82
24 26 26 20 23 33 38 41 31 35 37 40 44 46 46 43 42 44 48 56 63 58 53 60 70 72 63 64 80 81 82 87 91 94 94 97 97 97 91 90 90 88 86 89 89 92 93 90 90
17 25 31 34 53 49 39 35 38 35 39 42 48 48 49 46 45 44 53 59 66 61 59 66 74 68 61 66 80 81 82 84 88 95 94 97 96 94 91 91 90 88 87 88 88 91 93 88 88
15 24 18 39 40 26 25 43 36 40 45 49 55 55 49 46 46 46 60 64 66 61 60 66 72 72 63 64 76 78 84 84 83 87 86 89 95 96 93 92 90 88 87 87 88 91 81 92 91
23 22 42 45 43 47 54 22 39 49 51 58 62 57 50 48 48 48 64 66 61 58 60 63 72 77 75 79 79 81 86 85 85 84 80 81 84 89 92 93 93 89 86 85 90 89 86 89 89
31 37 32 63 45 79 84 53 35 48 51 58 62 57 48 48 48 49 68 70 62 58 61 69 75 78 77 80 79 82 84 85 88 88 80 74 75 76 80 88 93 94 91 87 88 88 84 86 86

GFSSGP_sfc_rhum_258.txt.gz
RH
51 35 35 38 40 36 52 63 52 67 54 46 37 38 40 35 38 61 29 19 16 14 13 16 40 42 43 45 45 46 47 47 48 48 50 51 52 53 57 59 60 62 66 58 55 56 59 68 78
37 33 31 35 32 31 45 48 58 55 50 40 33 39 36 40 29 28 22 16 12 11 13 15 40 42 44 44 46 46 46 46 47 47 48 50 50 50 52 53 57 60 62 64 61 54 54 57 62
25 23 30 34 32 28 42 44 46 50 47 43 35 28 31 37 28 20 13 13 11 12 14 15 40 42 43 45 45 46 46 46 47 47 47 47 49 49 50 51 51 54 55 58 62 59 55 52 56
29 24 24 30 42 46 41 38 41 39 32 33 30 35 22 16 19 13 12 10 11 12 14 20 38 42 44 46 47 47 48 48 48 48 50 50 49 48 48 49 50 50 51 51 57 60 60 53 53
24 25 29 38 46 37 32 32 37 39 33 27 31 28 21 14 12 12 12 10 12 12 14 14 36 42 45 47 49 50 51 50 50 54 53 52 51 51 50 50 49 48 48 48 53 56 60 65 56
29 26 21 28 41 32 26 25 27 31 30 29 22 20 18 11 13 12 11 10 11 13 16 17 30 39 44 47 51 53 54 54 55 57 54 54 55 53 51 50 52 50 48 47 48 52 54 58 64
33 29 35 38 39 35 28 20 22 23 22 21 20 22 14 11 14 12 10 11 13 15 18 21 23 31 42 46 51 53 62 62 62 60 59 58 55 52 51 53 51 50 48 47 46 49 52 53 56
31 32 39 39 40 41 25 21 19 19 20 14 12 15 16 14 13 13 13 13 15 17 20 23 28 29 33 36 52 61 61 63 62 62 60 58 57 51 46 46 46 45 48 48 48 48 48 52 56
31 33 39 46 41 34 21 21 15 12 12 12 12 12 12 13 14 15 15 15 18 20 22 24 30 34 36 37 39 53 57 59 60 55 56 50 33 31 34 40 48 52 54 52 50 49 48 49 49
32 37 43 34 30 28 22 19 16 16 14 14 12 11 13 14 13 14 16 18 20 23 24 27 30 35 38 33 40 42 40 42 44 43 42 40 37 35 38 47 51 54 53 53 52 52 50 45 28
33 37 33 30 26 23 22 20 16 18 21 15 16 16 15 14 14 14 15 17 21 24 27 30 32 36 39 39 40 44 49 50 47 46 49 48 42 39 37 37 36 36 41 32 30 28 25 22 21
34 29 29 30 24 21 21 16 16 17 18 14 17 16 14 13 14 16 18 20 21 24 29 34 36 38 40 42 45 48 50 56 51 52 55 54 53 48 43 41 40 41 38 36 34 30 28 27 24
28 27 24 22 20 18 16 17 16 15 14 14 14 15 14 13 16 17 19 21 23 26 31 35 39 42 41 46 47 47 50 52 52 54 56 58 59 57 52 47 42 41 40 38 37 34 32 29 24
24 22 19 17 17 17 18 18 16 14 14 12 13 14 13 14 18 20 22 23 24 27 31 34 34 39 39 44 44 46 48 50 52 56 58 56 59 60 58 56 54 49 43 41 40 38 36 32 28
20 23 20 18 19 20 16 20 18 13 12 13 12 11 14 14 19 22 24 24 25 28 30 34 35 38 41 44 41 46 46 48 51 56 55 56 59 60 63 67 64 59 53 51 45 40 38 37 32
21 22 28 23 20 19 24 27 17 13 12 14 13 11 13 14 20 23 24 25 25 30 32 33 34 35 39 40 40 44 43 46 52 52 49 56 62 66 70 73 71 66 62 59 55 49 46 42 37
27 20 27 30 20 24 25 24 16 13 13 14 12 11 11 17 22 24 25 26 28 32 32 34 34 34 36 36 38 38 40 45 47 47 56 58 67 71 76 77 75 70 70 65 64 58 53 47 41
18 17 22 27 28 26 27 21 16 15 14 14 11 11 12 18 24 26 26 27 33 32 32 34 34 34 36 37 36 39 43 50 51 56 63 59 70 78 83 84 79 78 79 76 72 67 61 56 49
17 18 20 26 25 26 26 21 17 16 15 15 12 12 13 20 24 26 27 28 34 33 36 37 36 35 37 40 43 46 53 56 57 58 64 61 74 77 84 85 80 76 85 84 78 75 70 65 57
19 16 23 29 25 22 22 20 16 15 17 14 14 14 14 23 27 28 28 29 34 34 36 36 37 40 44 47 48 52 57 58 56 61 66 71 67 77 78 84 84 83 89 84 79 76 79 70 61
19 17 18 16 27 19 20 23 22 16 16 12 12 14 14 26 30 31 31 31 35 35 37 38 41 44 47 47 51 55 59 58 57 62 77 80 73 79 83 80 79 78 80 90 85 82 84 86 68
16 17 16 20 24 21 23 21 24 19 16 12 13 14 15 27 31 33 34 35 38 39 40 39 41 42 44 49 53 60 74 82 66 73 83 85 78 84 84 84 83 75 76 88 88 84 88 86 90
14 22 24 26 23 26 31 27 23 19 15 14 14 15 16 27 33 35 34 40 39 40 42 41 42 44 47 53 55 62 69 66 66 74 77 78 75 82 87 87 86 86 84 79 83 89 87 87 86
16 24 26 26 24 24 28 23 17 16 18 17 16 16 18 28 34 36 36 40 41 41 43 44 44 49 48 54 58 63 67 67 73 73 83 81 80 79 83 87 90 88 75 78 89 89 89 88 82
12 17 18 19 18 13 20 21 17 20 19 20 23 21 19 31 36 39 40 46 46 45 45 43 47 52 46 49 56 59 60 64 74 74 83 81 82 83 82 87 90 92 84 69 74 83 82 85 85
12 15 14 22 13 13 24 20 18 20 20 18 22 22 21 34 38 42 45 53 48 43 45 46 48 51 48 48 52 52 55 57 67 70 76 79 79 81 77 83 84 83 86 74 68 75 80 87 88
12 14 18 16 19 18 12 15 19 21 15 16 20 22 25 37 41 43 47 54 46 43 44 45 48 50 49 50 51 49 48 52 58 65 62 68 67 70 70 83 92 89 84 82 67 75 75 68 71
13 16 17 15 51 26 8 8 9 21 19 18 20 23 25 39 42 43 49 53 43 43 43 44 46 48 48 52 49 48 48 48 50 57 58 57 58 66 68 91 95 95 90 81 77 69 66 65 80
14 14 19 17 17 24 17 9 13 19 22 23 22 23 26 40 44 43 46 46 42 43 44 44 45 47 48 50 50 50 53 55 49 49 52 54 55 60 62 88 92 92 91 80 74 60 58 62 72
17 16 13 34 41 27 40 21 15 20 21 28 24 24 26 40 45 42 45 42 42 45 46 44 44 47 48 49 48 50 58 61 54 47 47 49 52 54 58 78 85 89 84 77 75 65 51 54 60

GFSSGP_sfc_rhum_264.txt.gz
RH
65 50 47 60 78 70 57 67 51 57 51 38 33 34 39 35 41 62 36 21 18 18 15 21 33 42 48 51 53 54 55 56 57 56 56 55 54 54 54 54 54 54 55 57 58 60 62 67 67
52 28 52 66 70 53 63 49 60 54 45 36 31 33 37 37 23 22 24 19 14 12 14 19 33 41 46 50 54 55 57 58 58 58 57 55 56 57 56 55 54 53 52 55 56 58 59 63 65
51 24 57 64 54 58 60 51 56 39 32 33 33 25 26 27 18 19 16 14 11 13 18 20 34 40 45 50 53 55 59 60 60 61 61 60 59 58 57 55 54 54 53 53 54 55 55 58 61
42 46 39 48 50 43 41 44 38 35 28 30 27 26 19 17 18 14 11 11 13 15 18 25 34 40 45 51 54 57 58 61 67 68 66 64 64 65 62 60 58 56 55 54 53 53 55 55 58
40 45 49 40 42 36 34 36 41 35 28 23 25 25 21 16 13 13 14 13 16 18 21 20 33 38 43 48 52 55 56 61 63 64 64 66 67 64 62 64 62 58 56 54 54 55 56 55 55
50 37 36 48 40 31 27 29 30 26 21 20 22 22 20 14 16 16 14 15 15 17 20 23 30 38 41 46 52 53 54 56 58 60 59 58 61 64 60 59 61 60 58 57 57 57 56 54 54
51 50 41 43 40 33 26 21 24 24 22 16 13 23 17 16 17 15 15 15 15 18 21 26 33 35 41 46 49 50 54 55 58 58 58 56 61 60 58 54 53 52 52 54 54 55 54 54 53
48 48 39 42 38 41 25 20 17 18 17 13 12 19 24 17 16 16 15 14 17 20 26 29 35 38 42 47 48 52 54 55 56 58 58 59 59 60 61 64 56 55 55 56 56 58 58 57 54
40 56 52 47 41 36 23 20 15 13 14 13 13 15 15 15 15 16 17 18 23 24 29 32 37 40 43 41 39 53 55 51 53 57 57 56 54 54 57 60 62 64 59 56 57 57 58 58 57
42 58 45 32 33 32 25 21 17 17 18 18 16 14 14 14 13 15 18 25 28 30 33 35 42 44 40 34 44 55 48 56 57 55 50 49 50 48 49 55 60 63 64 60 54 52 51 53 53
36 47 32 28 26 23 22 21 19 22 27 20 20 18 16 14 14 17 19 25 28 30 38 36 38 39 40 42 45 56 55 62 62 47 51 57 57 61 59 62 64 62 59 57 57 51 45 45 52
36 29 28 29 24 22 21 17 19 20 23 17 20 17 15 14 15 18 25 27 29 29 33 37 40 40 42 45 49 51 52 55 60 56 63 61 64 64 66 65 63 62 60 58 59 59 53 49 40
32 28 24 24 22 20 17 20 19 19 19 14 14 14 15 13 17 21 27 28 28 27 34 35 38 43 41 44 49 50 53 54 55 50 54 54 61 66 67 65 66 67 66 63 61 59 58 57 51
26 25 23 20 18 18 19 20 22 17 16 16 14 15 12 14 18 25 29 30 28 32 34 34 36 40 43 44 46 53 54 56 54 57 54 50 58 65 66 67 71 72 71 69 65 63 61 59 58
20 24 22 21 19 22 19 23 20 18 13 16 15 12 12 13 20 30 31 29 31 35 33 37 34 38 44 46 50 56 56 53 60 54 52 56 58 60 66 74 78 78 75 75 72 64 64 64 58
23 25 35 22 22 21 30 39 19 18 18 20 16 10 13 14 24 31 30 28 34 35 35 35 32 38 43 46 48 48 52 58 57 53 58 58 60 63 70 79 82 80 83 84 82 79 75 70 66
27 31 34 29 21 22 26 37 20 18 19 20 15 12 12 14 26 31 28 29 34 35 37 39 40 41 44 48 51 52 54 57 56 57 59 63 66 68 77 83 82 81 86 85 84 79 79 76 70
24 23 24 31 25 25 31 31 20 18 19 22 14 13 14 15 28 31 29 29 35 36 40 41 42 45 47 52 53 57 60 60 58 60 63 60 62 70 80 80 84 83 88 89 90 91 86 81 75
18 18 22 27 24 30 30 29 22 20 20 23 15 15 15 17 28 31 30 31 38 37 42 44 46 47 49 56 56 58 62 63 64 64 52 59 67 72 68 77 84 86 90 92 91 92 93 92 84
19 17 28 28 22 27 24 27 22 20 21 23 14 16 16 20 31 36 32 35 41 42 45 45 45 48 49 58 59 64 62 66 61 54 54 62 66 68 64 73 85 89 92 88 90 91 94 93 87
22 19 16 16 28 24 25 29 25 19 19 19 12 16 16 22 35 39 36 40 45 47 48 45 48 50 51 55 58 64 65 57 56 57 60 64 59 63 70 74 80 85 91 94 93 91 92 96 94
28 18 18 18 31 37 23 38 30 23 22 17 14 18 19 25 35 40 38 44 47 48 48 48 48 51 48 55 62 67 64 60 57 59 58 60 59 63 68 73 76 84 87 93 94 85 92 95 97
20 27 26 28 28 31 31 41 49 22 21 18 16 20 20 27 39 43 42 45 46 48 52 52 52 54 56 59 65 72 72 64 58 64 70 61 63 68 68 74 80 86 90 90 92 92 89 95 96
19 27 29 32 35 46 36 30 37 27 22 21 20 20 20 29 41 44 42 45 49 50 52 54 54 56 57 61 64 69 73 71 68 69 81 68 68 71 70 76 85 88 92 90 94 92 88 93 95
21 28 49 57 56 43 21 26 33 22 22 20 23 23 22 33 44 49 50 53 51 51 53 48 55 58 56 59 64 65 70 68 72 71 76 74 66 70 70 88 95 94 92 90 90 92 89 88 95
22 27 38 39 42 37 27 42 38 21 18 16 19 23 22 35 46 51 49 53 52 47 51 53 56 57 56 58 65 65 66 68 71 72 73 73 58 60 66 92 94 93 92 89 88 93 89 87 93
22 32 29 29 28 42 40 29 26 22 19 17 19 22 26 38 48 50 45 49 49 49 50 51 55 56 57 60 63 63 65 63 66 66 66 68 53 52 68 88 89 90 90 88 88 90 88 82 87
22 20 34 40 71 50 29 27 36 30 25 18 20 25 25 39 49 49 46 48 48 47 48 50 53 55 56 60 59 62 63 59 62 60 60 59 51 54 65 84 87 88 87 82 81 88 79 80 85
26 25 24 26 27 59 49 36 26 24 24 26 23 23 25 42 51 49 47 51 51 47 48 51 53 55 58 58 58 68 66 58 61 58 57 56 48 56 61 70 83 79 81 80 84 86 82 82 81
24 24 20 71 58 46 76 57 16 20 22 24 26 22 25 40 50 48 49 56 56 51 49 50 53 57 57 55 56 67 64 63 64 64 58 58 50 56 56 66 71 82 76 71 76 79 78 82 87